| time (UTC) | temp C | wind direction | speed KPH | gust KPH | rain 1hr cm | rain 24hr cm | rain mn cm | humidity % | barometer mb |
| 20260504192531 | 26 | 0 | 8.0 | 20.9 | 0.00 | 0.53 | 0.28 | 66 | 1004.6 |
| 20260504192431 | 26 | 0 | 8.0 | 20.9 | 0.00 | 0.53 | 0.28 | 66 | 1004.6 |
| 20260504192332 | 26 | 226 | 9.7 | 20.9 | 0.00 | 0.53 | 0.28 | 66 | 1004.5 |
| 20260504192232 | 26 | 206 | 9.7 | 20.9 | 0.00 | 0.53 | 0.28 | 66 | 1004.5 |
| 20260504192132 | 26 | 214 | 9.7 | 20.9 | 0.00 | 0.53 | 0.28 | 66 | 1004.6 |
| 20260504192031 | 26 | 227 | 11.3 | 20.9 | 0.03 | 0.53 | 0.28 | 67 | 1004.6 |
| 20260504191933 | 26 | 193 | 14.5 | 20.9 | 0.03 | 0.53 | 0.28 | 66 | 1004.6 |
| 20260504191832 | 26 | 172 | 14.5 | 20.9 | 0.03 | 0.53 | 0.28 | 66 | 1004.6 |
| 20260504191731 | 26 | 186 | 12.9 | 20.9 | 0.03 | 0.53 | 0.28 | 66 | 1004.6 |
| 20260504191631 | 26 | 168 | 11.3 | 20.9 | 0.03 | 0.53 | 0.28 | 66 | 1004.7 |
| 20260504191532 | 26 | 255 | 9.7 | 20.9 | 0.03 | 0.53 | 0.28 | 66 | 1004.6 |
| 20260504191432 | 26 | 203 | 14.5 | 20.9 | 0.03 | 0.56 | 0.28 | 65 | 1004.7 |
| 20260504191331 | 26 | 172 | 12.9 | 20.9 | 0.03 | 0.56 | 0.28 | 65 | 1004.7 |
| 20260504191231 | 26 | 188 | 11.3 | 20.9 | 0.03 | 0.56 | 0.28 | 65 | 1004.7 |
| 20260504191132 | 26 | 190 | 11.3 | 20.9 | 0.03 | 0.56 | 0.28 | 65 | 1004.8 |
| 20260504191030 | 26 | 189 | 12.9 | 20.9 | 0.03 | 0.56 | 0.28 | 65 | 1004.9 |
| 20260504190931 | 26 | 183 | 14.5 | 20.9 | 0.03 | 0.56 | 0.28 | 66 | 1004.9 |
| 20260504190832 | 26 | 164 | 12.9 | 20.9 | 0.03 | 0.56 | 0.28 | 65 | 1004.9 |
| 20260504190732 | 26 | 176 | 12.9 | 19.3 | 0.03 | 0.56 | 0.28 | 66 | 1005.1 |
| 20260504190632 | 26 | 165 | 11.3 | 24.1 | 0.03 | 0.56 | 0.28 | 66 | 1005.1 |
| 20260504190532 | 26 | 0 | 11.3 | 24.1 | 0.03 | 0.56 | 0.28 | 66 | 1005.0 |
| 20260504190431 | 26 | 0 | 9.7 | 24.1 | 0.03 | 0.56 | 0.28 | 65 | 1005.0 |
| 20260504190331 | 26 | 180 | 8.0 | 24.1 | 0.03 | 0.56 | 0.28 | 65 | 1005.0 |
| 20260504190232 | 26 | 196 | 9.7 | 24.1 | 0.03 | 0.56 | 0.28 | 65 | 1005.0 |
| 20260504190131 | 26 | 0 | 11.3 | 24.1 | 0.03 | 0.56 | 0.28 | 65 | 1005.0 |
| 20260504190032 | 26 | 0 | 11.3 | 24.1 | 0.03 | 0.56 | 0.28 | 65 | 1005.0 |
| 20260504185931 | 26 | 0 | 12.9 | 24.1 | 0.03 | 0.56 | 0.28 | 64 | 1004.9 |
| 20260504185831 | 26 | 0 | 14.5 | 24.1 | 0.03 | 0.56 | 0.28 | 64 | 1005.1 |
| 20260504185731 | 26 | 0 | 16.1 | 24.1 | 0.03 | 0.56 | 0.28 | 65 | 1005.1 |
| 20260504185631 | 26 | 0 | 12.9 | 22.5 | 0.03 | 0.56 | 0.28 | 67 | 1005.1 |
| 20260504185533 | 26 | 0 | 8.0 | 16.1 | 0.03 | 0.56 | 0.28 | 66 | 1004.9 |
| 20260504185432 | 26 | 0 | 6.4 | 17.7 | 0.03 | 0.56 | 0.28 | 66 | 1005.0 |
| 20260504185330 | 26 | 0 | 6.4 | 25.7 | 0.03 | 0.56 | 0.28 | 66 | 1005.1 |
| 20260504185231 | 26 | 0 | 6.4 | 25.7 | 0.03 | 0.56 | 0.28 | 66 | 1005.0 |
| 20260504185132 | 26 | 251 | 8.0 | 25.7 | 0.03 | 0.56 | 0.28 | 66 | 1005.2 |
| 20260504185031 | 26 | 248 | 8.0 | 25.7 | 0.03 | 0.56 | 0.28 | 67 | 1005.2 |
| 20260504184931 | 26 | 243 | 6.4 | 25.7 | 0.03 | 0.56 | 0.28 | 68 | 1005.1 |
| 20260504184832 | 26 | 190 | 8.0 | 25.7 | 0.03 | 0.56 | 0.28 | 67 | 1005.1 |
| 20260504184732 | 26 | 185 | 9.7 | 25.7 | 0.03 | 0.56 | 0.28 | 66 | 1005.1 |
| 20260504184630 | 26 | 182 | 11.3 | 25.7 | 0.03 | 0.56 | 0.28 | 65 | 1005.2 |
| 20260504184533 | 26 | 192 | 14.5 | 25.7 | 0.03 | 0.56 | 0.28 | 65 | 1005.2 |
| 20260504184431 | 26 | 0 | 17.7 | 25.7 | 0.03 | 0.56 | 0.28 | 65 | 1005.1 |
| 20260504184331 | 26 | 0 | 17.7 | 25.7 | 0.03 | 0.56 | 0.28 | 65 | 1005.3 |
| 20260504184231 | 26 | 0 | 14.5 | 24.1 | 0.03 | 0.56 | 0.28 | 65 | 1005.2 |
| 20260504184132 | 26 | 0 | 9.7 | 24.1 | 0.03 | 0.56 | 0.28 | 65 | 1005.1 |
| 20260504184031 | 26 | 0 | 11.3 | 24.1 | 0.03 | 0.56 | 0.28 | 65 | 1005.1 |
| 20260504183931 | 26 | 0 | 16.1 | 24.1 | 0.03 | 0.56 | 0.28 | 65 | 1005.2 |
| 20260504183832 | 26 | 0 | 14.5 | 24.1 | 0.03 | 0.56 | 0.28 | 65 | 1005.2 |
| 20260504183731 | 26 | 0 | 9.7 | 22.5 | 0.03 | 0.56 | 0.28 | 66 | 1005.2 |
| 20260504183631 | 26 | 0 | 9.7 | 20.9 | 0.03 | 0.56 | 0.28 | 66 | 1005.2 |
| 20260504183531 | 26 | 0 | 8.0 | 20.9 | 0.03 | 0.58 | 0.28 | 66 | 1005.3 |
| 20260504183431 | 26 | 0 | 8.0 | 20.9 | 0.03 | 0.58 | 0.28 | 65 | 1005.3 |
| 20260504183332 | 26 | 0 | 9.7 | 20.9 | 0.03 | 0.58 | 0.28 | 65 | 1005.3 |
| 20260504183231 | 26 | 0 | 8.0 | 20.9 | 0.03 | 0.58 | 0.28 | 65 | 1005.3 |
| 20260504183132 | 26 | 0 | 9.7 | 20.9 | 0.03 | 0.58 | 0.28 | 65 | 1005.3 |
| 20260504183031 | 26 | 0 | 11.3 | 20.9 | 0.03 | 0.58 | 0.28 | 65 | 1005.3 |
| 20260504182932 | 26 | 0 | 9.7 | 20.9 | 0.03 | 0.58 | 0.28 | 65 | 1005.3 |
| 20260504182831 | 26 | 0 | 9.7 | 20.9 | 0.03 | 0.58 | 0.28 | 66 | 1005.3 |
| 20260504182732 | 26 | 0 | 9.7 | 22.5 | 0.03 | 0.58 | 0.28 | 66 | 1005.2 |
| 20260504182634 | 25 | 226 | 11.3 | 22.5 | 0.03 | 0.58 | 0.28 | 66 | 1005.4 |
| 20260504182531 | 25 | 212 | 11.3 | 22.5 | 0.03 | 0.58 | 0.28 | 66 | 1005.3 |
| 20260504182432 | 25 | 183 | 11.3 | 22.5 | 0.03 | 0.58 | 0.28 | 66 | 1005.3 |
| 20260504182330 | 25 | 179 | 12.9 | 22.5 | 0.03 | 0.58 | 0.28 | 65 | 1005.3 |
| 20260504182231 | 25 | 169 | 11.3 | 22.5 | 0.03 | 0.58 | 0.28 | 66 | 1005.4 |
| 20260504182132 | 25 | 188 | 11.3 | 24.1 | 0.03 | 0.58 | 0.28 | 66 | 1005.4 |
| 20260504182031 | 25 | 199 | 12.9 | 24.1 | 0.00 | 0.56 | 0.25 | 67 | 1005.4 |
| 20260504181931 | 25 | 212 | 12.9 | 29.0 | 0.00 | 0.56 | 0.25 | 65 | 1005.4 |
| 20260504181831 | 25 | 195 | 12.9 | 29.0 | 0.00 | 0.56 | 0.25 | 65 | 1005.4 |
| 20260504181732 | 25 | 219 | 9.7 | 29.0 | 0.00 | 0.56 | 0.25 | 66 | 1005.4 |
| 20260504181631 | 25 | 199 | 8.0 | 29.0 | 0.00 | 0.56 | 0.25 | 65 | 1005.3 |
| 20260504181531 | 25 | 223 | 8.0 | 29.0 | 0.00 | 0.56 | 0.25 | 65 | 1005.3 |
| 20260504181434 | 25 | 216 | 8.0 | 29.0 | 0.00 | 0.56 | 0.25 | 65 | 1005.4 |
| 20260504181332 | 25 | 230 | 14.5 | 29.0 | 0.00 | 0.56 | 0.25 | 64 | 1005.4 |
| 20260504181231 | 25 | 168 | 17.7 | 29.0 | 0.03 | 0.56 | 0.25 | 64 | 1005.5 |
| 20260504181131 | 25 | 158 | 16.1 | 29.0 | 0.03 | 0.56 | 0.25 | 66 | 1005.4 |
| 20260504181031 | 25 | 164 | 12.9 | 29.0 | 0.03 | 0.56 | 0.25 | 67 | 1005.4 |
| 20260504180931 | 25 | 155 | 8.0 | 29.0 | 0.03 | 0.56 | 0.25 | 66 | 1005.4 |
| 20260504180830 | 25 | 223 | 11.3 | 29.0 | 0.03 | 0.56 | 0.25 | 65 | 1005.4 |
| 20260504180731 | 25 | 183 | 12.9 | 29.0 | 0.03 | 0.56 | 0.25 | 65 | 1005.5 |
| 20260504180631 | 25 | 195 | 14.5 | 29.0 | 0.03 | 0.56 | 0.25 | 66 | 1005.6 |
| 20260504180529 | 25 | 169 | 16.1 | 29.0 | 0.03 | 0.56 | 0.25 | 65 | 1005.6 |
| 20260504180424 | 25 | 192 | 19.3 | 29.0 | 0.03 | 0.56 | 0.25 | 65 | 1005.7 |
| 20260504180323 | 25 | 186 | 16.1 | 29.0 | 0.03 | 0.56 | 0.25 | 65 | 1005.7 |
| 20260504180221 | 25 | 210 | 14.5 | 29.0 | 0.03 | 0.56 | 0.25 | 64 | 1005.6 |
| 20260504180121 | 25 | 200 | 14.5 | 29.0 | 0.03 | 0.56 | 0.25 | 64 | 1005.6 |
| 20260504180017 | 25 | 196 | 16.1 | 29.0 | 0.03 | 0.56 | 0.25 | 64 | 1005.7 |
| 20260504175916 | 25 | 186 | 20.9 | 29.0 | 0.03 | 0.56 | 0.25 | 64 | 1005.7 |
| 20260504175813 | 25 | 189 | 20.9 | 29.0 | 0.03 | 0.56 | 0.25 | 64 | 1005.8 |
| 20260504175712 | 25 | 179 | 16.1 | 27.4 | 0.03 | 0.56 | 0.25 | 65 | 1005.8 |
| 20260504175611 | 25 | 171 | 9.7 | 27.4 | 0.03 | 0.56 | 0.25 | 67 | 1005.8 |
| 20260504175510 | 25 | 188 | 3.2 | 27.4 | 0.03 | 0.56 | 0.25 | 66 | 1005.8 |
| 20260504175408 | 25 | 189 | 6.4 | 27.4 | 0.03 | 0.58 | 0.25 | 65 | 1005.9 |
| 20260504175306 | 25 | 164 | 9.7 | 27.4 | 0.03 | 0.58 | 0.25 | 65 | 1005.8 |
| 20260504175204 | 25 | 190 | 16.1 | 27.4 | 0.03 | 0.58 | 0.25 | 65 | 1006.0 |
| 20260504175105 | 25 | 162 | 19.3 | 27.4 | 0.03 | 0.58 | 0.25 | 65 | 1005.9 |
| 20260504175003 | 25 | 188 | 17.7 | 27.4 | 0.03 | 0.58 | 0.25 | 66 | 1005.9 |
| 20260504174902 | 25 | 175 | 16.1 | 27.4 | 0.03 | 0.58 | 0.25 | 65 | 1005.9 |
| 20260504174801 | 25 | 171 | 17.7 | 27.4 | 0.03 | 0.58 | 0.25 | 65 | 1006.0 |
| 20260504174659 | 25 | 196 | 16.1 | 27.4 | 0.03 | 0.58 | 0.25 | 66 | 1006.0 |
| 20260504174557 | 25 | 200 | 17.7 | 27.4 | 0.03 | 0.58 | 0.25 | 65 | 1005.9 |
| 20260504174456 | 25 | 203 | 17.7 | 27.4 | 0.03 | 0.58 | 0.25 | 66 | 1006.0 |
| 20260504174354 | 25 | 171 | 12.9 | 24.1 | 0.03 | 0.58 | 0.25 | 67 | 1005.9 |
| 20260504174253 | 25 | 175 | 8.0 | 25.7 | 0.03 | 0.58 | 0.25 | 66 | 1005.9 |
| 20260504174151 | 25 | 212 | 14.5 | 25.7 | 0.03 | 0.58 | 0.25 | 66 | 1005.9 |
| 20260504174049 | 25 | 214 | 16.1 | 25.7 | 0.03 | 0.58 | 0.25 | 65 | 1005.9 |
| 20260504173952 | 25 | 0 | 14.5 | 25.7 | 0.03 | 0.58 | 0.25 | 65 | 1005.8 |
| 20260504173853 | 25 | 0 | 12.9 | 25.7 | 0.03 | 0.58 | 0.25 | 66 | 1005.8 |
| 20260504173749 | 25 | 0 | 9.7 | 25.7 | 0.03 | 0.58 | 0.25 | 67 | 1005.8 |
| 20260504173648 | 25 | 183 | 8.0 | 25.7 | 0.03 | 0.58 | 0.25 | 67 | 1005.8 |
| 20260504173546 | 25 | 238 | 9.7 | 25.7 | 0.03 | 0.58 | 0.25 | 67 | 1005.8 |
| 20260504173444 | 25 | 217 | 14.5 | 25.7 | 0.03 | 0.58 | 0.25 | 67 | 1005.9 |
| 20260504173344 | 25 | 214 | 14.5 | 25.7 | 0.03 | 0.58 | 0.25 | 67 | 1006.0 |
| 20260504173240 | 25 | 0 | 11.3 | 27.4 | 0.03 | 0.58 | 0.25 | 67 | 1005.9 |
| 20260504173139 | 25 | 243 | 11.3 | 35.4 | 0.03 | 0.58 | 0.25 | 66 | 1006.0 |
| 20260504173039 | 24 | 183 | 12.9 | 35.4 | 0.03 | 0.58 | 0.25 | 67 | 1006.0 |
| 20260504172937 | 25 | 196 | 12.9 | 35.4 | 0.03 | 0.58 | 0.25 | 66 | 1006.1 |
| 20260504172834 | 25 | 226 | 12.9 | 35.4 | 0.03 | 0.58 | 0.25 | 66 | 1006.1 |
| 20260504172734 | 25 | 203 | 12.9 | 35.4 | 0.03 | 0.58 | 0.25 | 66 | 1006.2 |
| 20260504172633 | 25 | 197 | 16.1 | 35.4 | 0.03 | 0.58 | 0.25 | 66 | 1006.2 |
| 20260504172531 | 25 | 200 | 14.5 | 35.4 | 0.03 | 0.58 | 0.25 | 66 | 1006.3 |
| 20260504172430 | 25 | 189 | 14.5 | 35.4 | 0.03 | 0.58 | 0.25 | 68 | 1006.3 |
| 20260504172333 | 25 | 199 | 16.1 | 35.4 | 0.03 | 0.58 | 0.25 | 66 | 1006.2 |
| 20260504172231 | 24 | 158 | 19.3 | 30.6 | 0.03 | 0.58 | 0.25 | 67 | 1006.1 |
| 20260504172131 | 24 | 171 | 17.7 | 33.8 | 0.03 | 0.58 | 0.25 | 66 | 1006.1 |
| 20260504172031 | 24 | 172 | 16.1 | 33.8 | 0.03 | 0.58 | 0.25 | 65 | 1006.2 |
| 20260504171932 | 24 | 159 | 16.1 | 33.8 | 0.03 | 0.58 | 0.25 | 65 | 1006.1 |
| 20260504171832 | 24 | 176 | 17.7 | 33.8 | 0.03 | 0.58 | 0.25 | 65 | 1006.2 |
| 20260504171733 | 25 | 155 | 16.1 | 33.8 | 0.03 | 0.61 | 0.25 | 66 | 1006.2 |
| 20260504171632 | 25 | 202 | 17.7 | 33.8 | 0.03 | 0.61 | 0.25 | 66 | 1006.0 |
| 20260504171531 | 25 | 164 | 19.3 | 33.8 | 0.03 | 0.61 | 0.25 | 67 | 1006.2 |
| 20260504171431 | 24 | 192 | 20.9 | 33.8 | 0.03 | 0.61 | 0.25 | 66 | 1006.1 |
| 20260504171332 | 24 | 173 | 20.9 | 33.8 | 0.03 | 0.58 | 0.23 | 66 | 1006.2 |
| 20260504171232 | 24 | 152 | 20.9 | 33.8 | 0.03 | 0.58 | 0.23 | 66 | 1006.2 |
| 20260504171132 | 24 | 216 | 22.5 | 32.2 | 0.03 | 0.58 | 0.23 | 66 | 1006.3 |
| 20260504171031 | 24 | 180 | 22.5 | 32.2 | 0.03 | 0.58 | 0.23 | 66 | 1006.5 |
| 20260504170931 | 24 | 188 | 19.3 | 32.2 | 0.03 | 0.58 | 0.23 | 66 | 1006.4 |
| 20260504170831 | 25 | 158 | 20.9 | 32.2 | 0.03 | 0.58 | 0.23 | 67 | 1006.3 |
| 20260504170731 | 24 | 175 | 20.9 | 32.2 | 0.03 | 0.58 | 0.23 | 66 | 1006.5 |
| 20260504170631 | 24 | 202 | 19.3 | 32.2 | 0.03 | 0.58 | 0.23 | 67 | 1006.4 |
| 20260504170532 | 24 | 176 | 17.7 | 32.2 | 0.03 | 0.58 | 0.23 | 67 | 1006.5 |
| 20260504170431 | 24 | 173 | 19.3 | 32.2 | 0.03 | 0.58 | 0.23 | 68 | 1006.5 |
| 20260504170331 | 24 | 178 | 20.9 | 32.2 | 0.03 | 0.58 | 0.23 | 67 | 1006.6 |
| 20260504170232 | 24 | 182 | 19.3 | 32.2 | 0.03 | 0.58 | 0.23 | 67 | 1006.7 |
| 20260504170131 | 24 | 183 | 16.1 | 29.0 | 0.03 | 0.58 | 0.23 | 67 | 1006.5 |
| 20260504160433 | 23 | 217 | 11.3 | 33.8 | 0.03 | 0.58 | 0.20 | 71 | 1007.1 |
| 20260504160332 | 23 | 221 | 12.9 | 33.8 | 0.03 | 0.58 | 0.20 | 71 | 1007.2 |
| 20260504160230 | 23 | 258 | 14.5 | 33.8 | 0.03 | 0.58 | 0.20 | 71 | 1007.2 |
| 20260504160132 | 23 | 180 | 14.5 | 33.8 | 0.03 | 0.58 | 0.20 | 71 | 1007.1 |
| 20260504151102 | 22 | 219 | 9.7 | 22.5 | 0.03 | 0.58 | 0.18 | 72 | 1007.2 |
| 20260504151004 | 22 | 188 | 12.9 | 22.5 | 0.00 | 0.58 | 0.18 | 72 | 1007.2 |
| 20260504150902 | 22 | 185 | 14.5 | 29.0 | 0.00 | 0.58 | 0.18 | 72 | 1007.2 |
| 20260504150802 | 22 | 0 | 14.5 | 29.0 | 0.00 | 0.58 | 0.18 | 73 | 1007.2 |
| 20260504150703 | 22 | 179 | 12.9 | 29.0 | 0.03 | 0.58 | 0.18 | 73 | 1007.1 |
| 20260504150602 | 22 | 182 | 12.9 | 29.0 | 0.03 | 0.58 | 0.18 | 72 | 1007.1 |
| 20260504150502 | 22 | 179 | 14.5 | 29.0 | 0.03 | 0.58 | 0.18 | 72 | 1007.2 |
| 20260504150404 | 22 | 179 | 14.5 | 29.0 | 0.03 | 0.58 | 0.18 | 72 | 1007.2 |
| 20260504150302 | 22 | 200 | 12.9 | 29.0 | 0.03 | 0.58 | 0.18 | 72 | 1007.2 |
| 20260504150201 | 22 | 192 | 14.5 | 29.0 | 0.03 | 0.58 | 0.18 | 72 | 1007.2 |
| 20260504141331 | 20 | 165 | 11.3 | 25.7 | 0.03 | 0.61 | 0.18 | 74 | 1007.2 |
| 20260504141232 | 20 | 179 | 12.9 | 25.7 | 0.03 | 0.61 | 0.18 | 74 | 1007.2 |
| 20260504141132 | 20 | 173 | 14.5 | 25.7 | 0.03 | 0.61 | 0.18 | 74 | 1007.3 |
| 20260504141032 | 20 | 171 | 14.5 | 25.7 | 0.03 | 0.61 | 0.18 | 74 | 1007.2 |
| 20260504140932 | 20 | 151 | 14.5 | 25.7 | 0.03 | 0.61 | 0.18 | 74 | 1007.2 |
| 20260504140833 | 20 | 171 | 14.5 | 25.7 | 0.03 | 0.61 | 0.18 | 74 | 1007.2 |
| 20260504140731 | 20 | 200 | 14.5 | 25.7 | 0.03 | 0.58 | 0.15 | 74 | 1007.2 |
| 20260504140631 | 20 | 152 | 14.5 | 25.7 | 0.00 | 0.58 | 0.15 | 74 | 1007.1 |
| 20260504140531 | 20 | 179 | 16.1 | 25.7 | 0.00 | 0.58 | 0.15 | 74 | 1007.2 |
| 20260504140432 | 20 | 176 | 14.5 | 25.7 | 0.00 | 0.58 | 0.15 | 74 | 1007.2 |
| 20260504140331 | 20 | 175 | 11.3 | 19.3 | 0.00 | 0.58 | 0.15 | 75 | 1007.3 |
| 20260504140230 | 20 | 161 | 11.3 | 19.3 | 0.00 | 0.58 | 0.15 | 75 | 1007.3 |
| 20260504140132 | 20 | 162 | 11.3 | 19.3 | 0.00 | 0.58 | 0.15 | 75 | 1007.4 |
| 20260504130730 | 17 | 159 | 6.4 | 14.5 | 0.03 | 0.58 | 0.15 | 79 | 1007.1 |
| 20260504130632 | 17 | 157 | 6.4 | 14.5 | 0.03 | 0.58 | 0.15 | 80 | 1007.1 |
| 20260504130531 | 17 | 147 | 8.0 | 14.5 | 0.03 | 0.58 | 0.15 | 80 | 1007.0 |
| 20260504130431 | 17 | 151 | 8.0 | 14.5 | 0.03 | 0.58 | 0.15 | 80 | 1007.2 |
| 20260504130332 | 17 | 158 | 6.4 | 14.5 | 0.03 | 0.58 | 0.15 | 80 | 1007.2 |
| 20260504130231 | 17 | 162 | 8.0 | 14.5 | 0.03 | 0.58 | 0.15 | 80 | 1007.1 |
| 20260504130130 | 17 | 168 | 8.0 | 14.5 | 0.03 | 0.58 | 0.15 | 80 | 1007.2 |
| 20260504120232 | 15 | 145 | 3.2 | 6.4 | 0.03 | 0.58 | 0.13 | 85 | 1007.0 |
| 20260504120132 | 15 | 145 | 4.8 | 6.4 | 0.03 | 0.58 | 0.13 | 85 | 1007.0 |
| 20260504110703 | 15 | 152 | 3.2 | 6.4 | 0.00 | 0.58 | 0.10 | 83 | 1006.7 |
| 20260504110602 | 15 | 152 | 3.2 | 6.4 | 0.00 | 0.58 | 0.10 | 83 | 1006.6 |
| 20260504110502 | 15 | 152 | 3.2 | 8.0 | 0.00 | 0.58 | 0.10 | 83 | 1006.6 |
| 20260504110402 | 15 | 152 | 3.2 | 8.0 | 0.00 | 0.58 | 0.10 | 83 | 1006.7 |
| 20260504110304 | 15 | 152 | 3.2 | 8.0 | 0.00 | 0.58 | 0.10 | 83 | 1006.6 |
| 20260504110202 | 15 | 152 | 3.2 | 8.0 | 0.00 | 0.58 | 0.10 | 83 | 1006.6 |
| 20260504110104 | 15 | 152 | 3.2 | 8.0 | 0.00 | 0.58 | 0.10 | 83 | 1006.6 |
| 20260504100533 | 16 | 152 | 6.4 | 8.0 | 0.03 | 0.61 | 0.10 | 82 | 1006.8 |
| 20260504100432 | 16 | 152 | 6.4 | 8.0 | 0.03 | 0.61 | 0.10 | 82 | 1006.8 |
| 20260504100331 | 16 | 157 | 4.8 | 9.7 | 0.03 | 0.61 | 0.10 | 82 | 1006.8 |
| 20260504100231 | 16 | 142 | 4.8 | 9.7 | 0.03 | 0.61 | 0.10 | 82 | 1006.8 |
| 20260504100132 | 16 | 134 | 4.8 | 9.7 | 0.03 | 0.61 | 0.10 | 82 | 1007.0 |
| 20260504090130 | 16 | 152 | 8.0 | 11.3 | 0.03 | 0.64 | 0.08 | 81 | 1007.3 |
| 20260504081932 | 16 | 154 | 6.4 | 8.0 | 0.00 | 0.61 | 0.05 | 80 | 1007.5 |
| 20260504081831 | 16 | 151 | 6.4 | 8.0 | 0.00 | 0.64 | 0.05 | 80 | 1007.5 |
| 20260504081731 | 16 | 149 | 6.4 | 8.0 | 0.00 | 0.64 | 0.05 | 80 | 1007.5 |
| 20260504081630 | 16 | 149 | 4.8 | 9.7 | 0.00 | 0.64 | 0.05 | 80 | 1007.5 |
| 20260504081531 | 16 | 147 | 4.8 | 9.7 | 0.00 | 0.64 | 0.05 | 80 | 1007.5 |
| 20260504081432 | 16 | 147 | 6.4 | 9.7 | 0.00 | 0.64 | 0.05 | 80 | 1007.6 |
| 20260504081331 | 16 | 147 | 6.4 | 11.3 | 0.00 | 0.64 | 0.05 | 80 | 1007.6 |
| 20260504081231 | 16 | 147 | 4.8 | 11.3 | 0.00 | 0.64 | 0.05 | 80 | 1007.5 |
| 20260504081131 | 16 | 147 | 6.4 | 11.3 | 0.00 | 0.64 | 0.05 | 80 | 1007.5 |
| 20260504081031 | 16 | 148 | 6.4 | 11.3 | 0.00 | 0.64 | 0.05 | 80 | 1007.5 |
| 20260504080932 | 16 | 145 | 6.4 | 11.3 | 0.00 | 0.64 | 0.05 | 79 | 1007.5 |
| 20260504080831 | 16 | 138 | 6.4 | 11.3 | 0.03 | 0.64 | 0.05 | 80 | 1007.6 |
| 20260504080731 | 16 | 149 | 6.4 | 11.3 | 0.03 | 0.64 | 0.05 | 80 | 1007.4 |
| 20260504080628 | 16 | 148 | 8.0 | 11.3 | 0.03 | 0.64 | 0.05 | 80 | 1007.5 |
| 20260504080528 | 16 | 158 | 8.0 | 11.3 | 0.03 | 0.64 | 0.05 | 79 | 1007.5 |
| 20260504080427 | 16 | 141 | 6.4 | 11.3 | 0.03 | 0.64 | 0.05 | 79 | 1007.6 |
| 20260504080324 | 16 | 155 | 6.4 | 9.7 | 0.03 | 0.64 | 0.05 | 79 | 1007.5 |
| 20260504080223 | 16 | 152 | 8.0 | 9.7 | 0.03 | 0.64 | 0.05 | 79 | 1007.6 |
| 20260504080123 | 16 | 158 | 6.4 | 9.7 | 0.03 | 0.64 | 0.05 | 79 | 1007.6 |
| 20260504070402 | 17 | 192 | 0.0 | 4.8 | 0.00 | 0.64 | 0.03 | 79 | 1008.8 |
| 20260504070302 | 17 | 192 | 0.0 | 4.8 | 0.00 | 0.64 | 0.03 | 79 | 1008.9 |
| 20260504070203 | 17 | 192 | 0.0 | 4.8 | 0.00 | 0.64 | 0.03 | 79 | 1009.0 |
| 20260504060247 | 17 | 200 | 4.8 | 9.7 | 0.03 | 0.66 | 0.03 | 77 | 1009.3 |
| 20260504060146 | 17 | 206 | 3.2 | 9.7 | 0.03 | 0.66 | 0.03 | 77 | 1009.4 |
| 20260504050746 | 17 | 183 | 0.0 | 0.0 | 0.03 | 0.66 | 0.00 | 74 | 1009.5 |
| 20260504050644 | 17 | 183 | 0.0 | 0.0 | 0.03 | 0.66 | 0.00 | 74 | 1009.6 |
| 20260504050545 | 17 | 183 | 0.0 | 0.0 | 0.03 | 0.69 | 0.00 | 74 | 1009.6 |
| 20260504050446 | 17 | 182 | 0.0 | 0.0 | 0.03 | 0.69 | 0.00 | 74 | 1009.7 |
| 20260504050346 | 17 | 182 | 0.0 | 0.0 | 0.03 | 0.69 | 0.00 | 74 | 1009.7 |
| 20260504050246 | 17 | 182 | 0.0 | 0.0 | 0.03 | 0.69 | 0.00 | 74 | 1009.7 |
| 20260504050144 | 17 | 182 | 0.0 | 0.0 | 0.03 | 0.69 | 0.00 | 74 | 1009.7 |
| 20260504045944 | 17 | 182 | 0.0 | 0.0 | 0.03 | 0.69 | 0.69 | 74 | 1009.7 |
| 20260504045844 | 17 | 182 | 0.0 | 0.0 | 0.03 | 0.69 | 0.69 | 73 | 1009.7 |
| 20260504045746 | 17 | 182 | 0.0 | 0.0 | 0.03 | 0.69 | 0.69 | 73 | 1009.6 |
| 20260504045645 | 17 | 182 | 0.0 | 0.0 | 0.03 | 0.69 | 0.69 | 73 | 1009.6 |
| 20260504045540 | 17 | 182 | 0.0 | 0.0 | 0.03 | 0.69 | 0.69 | 73 | 1009.6 |
| 20260504045438 | 17 | 204 | 0.0 | 0.0 | 0.03 | 0.69 | 0.69 | 73 | 1009.6 |
| 20260504045337 | 17 | 209 | 0.0 | 0.0 | 0.03 | 0.69 | 0.69 | 73 | 1009.6 |
| 20260504045235 | 18 | 207 | 0.0 | 0.0 | 0.03 | 0.69 | 0.69 | 73 | 1009.6 |
| 20260504045134 | 18 | 204 | 0.0 | 0.0 | 0.03 | 0.69 | 0.69 | 73 | 1009.6 |
| 20260504045032 | 18 | 206 | 0.0 | 0.0 | 0.03 | 0.69 | 0.69 | 73 | 1009.7 |
| 20260504044931 | 18 | 204 | 0.0 | 0.0 | 0.03 | 0.69 | 0.69 | 73 | 1009.7 |
| 20260504044831 | 18 | 207 | 0.0 | 0.0 | 0.03 | 0.69 | 0.69 | 73 | 1009.7 |
| 20260504044732 | 18 | 206 | 0.0 | 0.0 | 0.03 | 0.69 | 0.69 | 73 | 1009.7 |
| 20260504044631 | 18 | 204 | 0.0 | 1.6 | 0.03 | 0.69 | 0.69 | 73 | 1009.8 |
| 20260504044530 | 18 | 203 | 0.0 | 1.6 | 0.03 | 0.69 | 0.69 | 73 | 1009.8 |
| 20260504044432 | 18 | 203 | 0.0 | 3.2 | 0.03 | 0.69 | 0.69 | 72 | 1009.8 |
| 20260504044331 | 18 | 202 | 0.0 | 3.2 | 0.03 | 0.69 | 0.69 | 72 | 1009.8 |
| 20260504044229 | 18 | 200 | 0.0 | 3.2 | 0.03 | 0.69 | 0.69 | 72 | 1009.8 |
| 20260504044128 | 18 | 204 | 0.0 | 3.2 | 0.03 | 0.69 | 0.69 | 72 | 1009.8 |
| 20260504044026 | 18 | 203 | 0.0 | 3.2 | 0.03 | 0.69 | 0.69 | 72 | 1009.7 |
| 20260504043924 | 18 | 192 | 0.0 | 3.2 | 0.03 | 0.69 | 0.69 | 72 | 1009.7 |
| 20260504043824 | 18 | 186 | 0.0 | 3.2 | 0.03 | 0.69 | 0.69 | 72 | 1009.7 |
| 20260504043721 | 18 | 185 | 0.0 | 3.2 | 0.03 | 0.69 | 0.69 | 72 | 1009.8 |
| 20260504043620 | 18 | 183 | 1.6 | 4.8 | 0.03 | 0.69 | 0.69 | 72 | 1009.8 |
| 20260504043518 | 18 | 183 | 1.6 | 6.4 | 0.03 | 0.69 | 0.69 | 72 | 1009.8 |
| 20260504043417 | 18 | 183 | 1.6 | 6.4 | 0.03 | 0.69 | 0.69 | 72 | 1009.9 |
| 20260504043316 | 18 | 183 | 1.6 | 6.4 | 0.03 | 0.69 | 0.69 | 72 | 1009.8 |
| 20260504043214 | 18 | 183 | 1.6 | 6.4 | 0.00 | 0.66 | 0.66 | 72 | 1009.8 |
| 20260504043112 | 18 | 183 | 1.6 | 6.4 | 0.00 | 0.66 | 0.66 | 72 | 1009.8 |
| 20260504043011 | 18 | 183 | 0.0 | 6.4 | 0.00 | 0.66 | 0.66 | 72 | 1009.8 |
| 20260504042910 | 18 | 183 | 1.6 | 6.4 | 0.00 | 0.66 | 0.66 | 71 | 1009.9 |
| 20260504042808 | 18 | 183 | 3.2 | 6.4 | 0.00 | 0.66 | 0.66 | 71 | 1009.9 |
| 20260504042706 | 18 | 183 | 4.8 | 6.4 | 0.00 | 0.66 | 0.66 | 71 | 1009.9 |
| 20260504042603 | 18 | 182 | 3.2 | 6.4 | 0.00 | 0.66 | 0.66 | 71 | 1009.9 |
| 20260504042502 | 18 | 182 | 3.2 | 9.7 | 0.00 | 0.69 | 0.66 | 71 | 1009.9 |
| 20260504042403 | 18 | 182 | 4.8 | 9.7 | 0.00 | 0.69 | 0.66 | 71 | 1009.9 |
| 20260504042304 | 18 | 182 | 3.2 | 9.7 | 0.00 | 0.69 | 0.66 | 71 | 1009.9 |
| 20260504042202 | 18 | 183 | 3.2 | 9.7 | 0.00 | 0.69 | 0.66 | 71 | 1009.8 |
| 20260504042103 | 18 | 186 | 3.2 | 9.7 | 0.00 | 0.69 | 0.66 | 71 | 1009.8 |
| 20260504042001 | 18 | 186 | 3.2 | 9.7 | 0.00 | 0.69 | 0.66 | 71 | 1009.8 |
| 20260504041903 | 18 | 186 | 3.2 | 9.7 | 0.00 | 0.69 | 0.66 | 71 | 1009.8 |
| 20260504041803 | 18 | 183 | 3.2 | 9.7 | 0.00 | 0.69 | 0.66 | 71 | 1009.8 |
| 20260504041702 | 18 | 193 | 3.2 | 9.7 | 0.00 | 0.69 | 0.66 | 70 | 1009.8 |
| 20260504041602 | 18 | 197 | 4.8 | 9.7 | 0.00 | 0.69 | 0.66 | 71 | 1009.8 |
| 20260504041502 | 18 | 193 | 4.8 | 8.0 | 0.00 | 0.69 | 0.66 | 71 | 1009.8 |
| 20260504041403 | 18 | 185 | 3.2 | 8.0 | 0.00 | 0.69 | 0.66 | 70 | 1009.9 |
| 20260504041302 | 18 | 186 | 3.2 | 8.0 | 0.03 | 0.69 | 0.66 | 70 | 1009.9 |
| 20260504041202 | 18 | 186 | 3.2 | 8.0 | 0.03 | 0.69 | 0.66 | 70 | 1010.0 |
| 20260504041103 | 18 | 186 | 4.8 | 8.0 | 0.03 | 0.69 | 0.66 | 70 | 1010.0 |
| 20260504041002 | 18 | 185 | 6.4 | 8.0 | 0.03 | 0.69 | 0.66 | 70 | 1010.0 |
| 20260504040900 | 18 | 190 | 6.4 | 8.0 | 0.03 | 0.69 | 0.66 | 70 | 1009.9 |
| 20260504040759 | 18 | 197 | 3.2 | 8.0 | 0.03 | 0.69 | 0.66 | 70 | 1010.0 |
| 20260504040657 | 18 | 192 | 0.0 | 6.4 | 0.03 | 0.69 | 0.66 | 70 | 1009.9 |
| 20260504040556 | 18 | 193 | 0.0 | 6.4 | 0.03 | 0.69 | 0.66 | 70 | 1009.9 |
| 20260504040454 | 18 | 195 | 0.0 | 6.4 | 0.03 | 0.69 | 0.66 | 70 | 1009.9 |
| 20260504040350 | 18 | 161 | 0.0 | 6.4 | 0.03 | 0.69 | 0.66 | 69 | 1009.8 |
| 20260504040248 | 18 | 188 | 0.0 | 6.4 | 0.03 | 0.69 | 0.66 | 69 | 1009.8 |
| 20260504040146 | 18 | 189 | 0.0 | 8.0 | 0.03 | 0.69 | 0.66 | 69 | 1009.9 |
| 20260504040046 | 18 | 188 | 1.6 | 8.0 | 0.03 | 0.69 | 0.66 | 69 | 1009.9 |
| 20260504035943 | 18 | 189 | 4.8 | 8.0 | 0.03 | 0.69 | 0.66 | 69 | 1009.9 |
| 20260504035844 | 18 | 189 | 4.8 | 8.0 | 0.03 | 0.69 | 0.66 | 69 | 1009.9 |
| 20260504035743 | 18 | 186 | 3.2 | 8.0 | 0.03 | 0.69 | 0.66 | 69 | 1009.8 |
| 20260504035644 | 18 | 186 | 3.2 | 8.0 | 0.03 | 0.69 | 0.66 | 69 | 1009.8 |
| 20260504035543 | 18 | 179 | 1.6 | 8.0 | 0.03 | 0.69 | 0.66 | 69 | 1009.8 |
| 20260504035445 | 18 | 179 | 3.2 | 8.0 | 0.03 | 0.69 | 0.66 | 69 | 1009.8 |
| 20260504035343 | 18 | 179 | 4.8 | 8.0 | 0.03 | 0.69 | 0.66 | 69 | 1010.0 |
| 20260504035243 | 18 | 179 | 4.8 | 9.7 | 0.03 | 0.69 | 0.66 | 69 | 1009.9 |
| 20260504035144 | 19 | 179 | 3.2 | 9.7 | 0.03 | 0.69 | 0.66 | 69 | 1009.9 |
| 20260504035043 | 19 | 161 | 4.8 | 9.7 | 0.03 | 0.69 | 0.66 | 69 | 1009.8 |
| 20260504034943 | 19 | 149 | 6.4 | 9.7 | 0.03 | 0.69 | 0.66 | 69 | 1009.9 |
| 20260504034843 | 19 | 149 | 6.4 | 9.7 | 0.03 | 0.69 | 0.66 | 69 | 1009.8 |
| 20260504034743 | 19 | 152 | 6.4 | 9.7 | 0.03 | 0.69 | 0.66 | 69 | 1009.8 |
| 20260504034642 | 19 | 154 | 6.4 | 9.7 | 0.03 | 0.69 | 0.66 | 68 | 1009.9 |
| 20260504034543 | 19 | 162 | 6.4 | 9.7 | 0.03 | 0.69 | 0.66 | 68 | 1009.8 |
| 20260504034444 | 19 | 169 | 6.4 | 9.7 | 0.03 | 0.69 | 0.66 | 68 | 1009.8 |
| 20260504034342 | 19 | 155 | 6.4 | 9.7 | 0.03 | 0.69 | 0.66 | 68 | 1009.7 |
| 20260504034243 | 19 | 151 | 4.8 | 9.7 | 0.03 | 0.69 | 0.66 | 68 | 1009.7 |
| 20260504034144 | 19 | 158 | 3.2 | 9.7 | 0.03 | 0.69 | 0.66 | 68 | 1009.8 |
| 20260504034043 | 19 | 158 | 4.8 | 9.7 | 0.03 | 0.71 | 0.66 | 68 | 1009.8 |
| 20260504033942 | 19 | 171 | 4.8 | 9.7 | 0.03 | 0.71 | 0.66 | 68 | 1009.8 |
| 20260504033843 | 19 | 158 | 4.8 | 11.3 | 0.03 | 0.71 | 0.66 | 68 | 1009.8 |
| 20260504033744 | 19 | 155 | 6.4 | 11.3 | 0.03 | 0.71 | 0.66 | 68 | 1009.7 |
| 20260504033643 | 19 | 155 | 6.4 | 11.3 | 0.03 | 0.71 | 0.66 | 68 | 1009.7 |
| 20260504033543 | 19 | 169 | 6.4 | 11.3 | 0.03 | 0.71 | 0.66 | 68 | 1009.7 |
| 20260504033442 | 19 | 162 | 6.4 | 11.3 | 0.03 | 0.71 | 0.66 | 68 | 1009.8 |
| 20260504033344 | 19 | 159 | 4.8 | 11.3 | 0.03 | 0.71 | 0.66 | 68 | 1009.8 |
| 20260504033244 | 19 | 155 | 6.4 | 11.3 | 0.03 | 0.71 | 0.66 | 68 | 1009.8 |
| 20260504033142 | 19 | 154 | 6.4 | 11.3 | 0.03 | 0.71 | 0.66 | 68 | 1009.8 |
| 20260504033044 | 19 | 166 | 8.0 | 11.3 | 0.03 | 0.71 | 0.66 | 68 | 1009.8 |
| 20260504032943 | 19 | 161 | 6.4 | 11.3 | 0.03 | 0.71 | 0.66 | 68 | 1009.9 |
| 20260504032844 | 19 | 152 | 6.4 | 9.7 | 0.03 | 0.71 | 0.66 | 68 | 1009.9 |
| 20260504032744 | 19 | 148 | 6.4 | 9.7 | 0.03 | 0.71 | 0.66 | 68 | 1009.9 |
| 20260504032644 | 19 | 151 | 6.4 | 9.7 | 0.03 | 0.71 | 0.66 | 67 | 1009.8 |
| 20260504032542 | 19 | 151 | 6.4 | 9.7 | 0.03 | 0.71 | 0.66 | 67 | 1009.8 |
| 20260504032443 | 19 | 154 | 6.4 | 9.7 | 0.03 | 0.71 | 0.66 | 67 | 1009.8 |
| 20260504032343 | 19 | 178 | 6.4 | 9.7 | 0.03 | 0.71 | 0.66 | 67 | 1009.7 |
| 20260504032242 | 19 | 168 | 6.4 | 9.7 | 0.03 | 0.71 | 0.66 | 67 | 1009.7 |
| 20260504032143 | 19 | 171 | 6.4 | 9.7 | 0.03 | 0.71 | 0.66 | 67 | 1009.7 |
| 20260504032042 | 19 | 183 | 6.4 | 9.7 | 0.03 | 0.71 | 0.66 | 67 | 1009.7 |
| 20260504031943 | 19 | 151 | 6.4 | 9.7 | 0.03 | 0.71 | 0.66 | 67 | 1009.7 |
| 20260504031843 | 19 | 169 | 6.4 | 9.7 | 0.03 | 0.71 | 0.66 | 67 | 1009.7 |
| 20260504031742 | 19 | 164 | 6.4 | 9.7 | 0.03 | 0.71 | 0.66 | 67 | 1009.6 |
| 20260504031643 | 20 | 178 | 6.4 | 9.7 | 0.03 | 0.71 | 0.66 | 67 | 1009.7 |
| 20260504031542 | 20 | 166 | 6.4 | 9.7 | 0.03 | 0.71 | 0.66 | 67 | 1009.7 |
| 20260504031442 | 20 | 165 | 8.0 | 11.3 | 0.03 | 0.71 | 0.66 | 66 | 1009.7 |
| 20260504031343 | 20 | 165 | 8.0 | 11.3 | 0.00 | 0.69 | 0.64 | 66 | 1009.7 |
| 20260504031242 | 20 | 168 | 8.0 | 11.3 | 0.00 | 0.69 | 0.64 | 66 | 1009.7 |
| 20260504031142 | 20 | 161 | 6.4 | 11.3 | 0.00 | 0.69 | 0.64 | 66 | 1009.7 |
| 20260504031043 | 20 | 164 | 6.4 | 11.3 | 0.00 | 0.69 | 0.64 | 66 | 1009.7 |
| 20260504030943 | 20 | 168 | 8.0 | 11.3 | 0.00 | 0.69 | 0.64 | 66 | 1009.7 |
| 20260504030843 | 20 | 169 | 8.0 | 11.3 | 0.00 | 0.69 | 0.64 | 66 | 1009.6 |
| 20260504030742 | 20 | 165 | 8.0 | 11.3 | 0.00 | 0.69 | 0.64 | 66 | 1009.6 |
| 20260504030643 | 20 | 161 | 8.0 | 11.3 | 0.00 | 0.69 | 0.64 | 66 | 1009.6 |
| 20260504030542 | 20 | 161 | 8.0 | 11.3 | 0.00 | 0.69 | 0.64 | 66 | 1009.5 |
| 20260504030442 | 20 | 152 | 8.0 | 11.3 | 0.00 | 0.69 | 0.64 | 65 | 1009.6 |
| 20260504030342 | 20 | 151 | 8.0 | 11.3 | 0.03 | 0.69 | 0.64 | 65 | 1009.5 |
| 20260504030243 | 20 | 162 | 8.0 | 11.3 | 0.03 | 0.69 | 0.64 | 65 | 1009.5 |
| 20260504030143 | 20 | 161 | 8.0 | 11.3 | 0.03 | 0.69 | 0.64 | 65 | 1009.5 |
| 20260504030044 | 20 | 171 | 8.0 | 11.3 | 0.03 | 0.69 | 0.64 | 65 | 1009.5 |
| 20260504025943 | 20 | 162 | 8.0 | 11.3 | 0.03 | 0.69 | 0.64 | 65 | 1009.5 |
| 20260504025843 | 20 | 175 | 6.4 | 9.7 | 0.03 | 0.69 | 0.64 | 65 | 1009.6 |
| 20260504025742 | 20 | 157 | 6.4 | 9.7 | 0.03 | 0.69 | 0.64 | 65 | 1009.5 |
| 20260504025642 | 20 | 154 | 4.8 | 9.7 | 0.03 | 0.69 | 0.64 | 65 | 1009.6 |
| 20260504025543 | 20 | 164 | 4.8 | 11.3 | 0.03 | 0.69 | 0.64 | 64 | 1009.6 |
| 20260504025442 | 20 | 166 | 4.8 | 11.3 | 0.03 | 0.69 | 0.64 | 64 | 1009.5 |
| 20260504025342 | 20 | 162 | 6.4 | 11.3 | 0.03 | 0.69 | 0.64 | 64 | 1009.6 |
| 20260504025241 | 20 | 161 | 6.4 | 11.3 | 0.03 | 0.71 | 0.64 | 64 | 1009.6 |
| 20260504025142 | 20 | 164 | 6.4 | 11.3 | 0.03 | 0.71 | 0.64 | 64 | 1009.5 |
| 20260504025042 | 20 | 165 | 8.0 | 11.3 | 0.03 | 0.71 | 0.64 | 64 | 1009.5 |
| 20260504024942 | 20 | 173 | 8.0 | 14.5 | 0.03 | 0.71 | 0.64 | 64 | 1009.4 |
| 20260504024843 | 20 | 171 | 8.0 | 14.5 | 0.03 | 0.71 | 0.64 | 64 | 1009.4 |
| 20260504024743 | 20 | 162 | 8.0 | 14.5 | 0.03 | 0.71 | 0.64 | 64 | 1009.4 |
| 20260504024643 | 20 | 164 | 8.0 | 14.5 | 0.03 | 0.71 | 0.64 | 64 | 1009.3 |
| 20260504024543 | 20 | 168 | 8.0 | 16.1 | 0.03 | 0.71 | 0.64 | 63 | 1009.3 |
| 20260504024442 | 20 | 169 | 6.4 | 16.1 | 0.03 | 0.71 | 0.64 | 63 | 1009.3 |
| 20260504024341 | 20 | 168 | 8.0 | 16.1 | 0.03 | 0.71 | 0.64 | 63 | 1009.3 |
| 20260504024243 | 20 | 176 | 8.0 | 16.1 | 0.03 | 0.71 | 0.64 | 63 | 1009.3 |
| 20260504024143 | 20 | 175 | 9.7 | 19.3 | 0.03 | 0.71 | 0.64 | 63 | 1009.3 |
| 20260504024041 | 20 | 173 | 9.7 | 19.3 | 0.03 | 0.71 | 0.64 | 63 | 1009.4 |
| 20260504023940 | 20 | 165 | 9.7 | 19.3 | 0.03 | 0.71 | 0.64 | 63 | 1009.5 |
| 20260504023843 | 20 | 172 | 9.7 | 19.3 | 0.03 | 0.71 | 0.64 | 63 | 1009.5 |
| 20260504023742 | 20 | 161 | 11.3 | 19.3 | 0.03 | 0.71 | 0.64 | 63 | 1009.4 |
| 20260504023641 | 20 | 176 | 9.7 | 19.3 | 0.03 | 0.71 | 0.64 | 63 | 1009.4 |
| 20260504023542 | 20 | 179 | 9.7 | 19.3 | 0.03 | 0.71 | 0.64 | 63 | 1009.4 |
| 20260504023442 | 20 | 162 | 9.7 | 19.3 | 0.03 | 0.71 | 0.64 | 63 | 1009.4 |
| 20260504023342 | 20 | 158 | 9.7 | 19.3 | 0.03 | 0.71 | 0.64 | 63 | 1009.4 |
| 20260504023241 | 20 | 193 | 11.3 | 19.3 | 0.03 | 0.71 | 0.64 | 63 | 1009.4 |
| 20260504023142 | 20 | 179 | 9.7 | 19.3 | 0.03 | 0.71 | 0.64 | 63 | 1009.4 |
| 20260504023041 | 20 | 172 | 8.0 | 19.3 | 0.03 | 0.71 | 0.64 | 63 | 1009.3 |
| 20260504022941 | 20 | 179 | 9.7 | 19.3 | 0.03 | 0.71 | 0.64 | 63 | 1009.3 |
| 20260504022842 | 20 | 168 | 9.7 | 19.3 | 0.03 | 0.71 | 0.64 | 63 | 1009.3 |
| 20260504022743 | 20 | 185 | 9.7 | 19.3 | 0.03 | 0.71 | 0.64 | 63 | 1009.3 |
| 20260504022641 | 20 | 185 | 9.7 | 19.3 | 0.03 | 0.71 | 0.64 | 63 | 1009.2 |
| 20260504022542 | 20 | 190 | 8.0 | 19.3 | 0.03 | 0.71 | 0.64 | 63 | 1009.3 |
| 20260504022443 | 20 | 204 | 6.4 | 14.5 | 0.03 | 0.71 | 0.64 | 63 | 1009.3 |
| 20260504022341 | 20 | 203 | 6.4 | 14.5 | 0.03 | 0.71 | 0.64 | 63 | 1009.2 |
| 20260504022241 | 20 | 182 | 8.0 | 14.5 | 0.03 | 0.71 | 0.64 | 63 | 1009.3 |
| 20260504022141 | 20 | 173 | 8.0 | 16.1 | 0.03 | 0.71 | 0.64 | 63 | 1009.2 |
| 20260504022041 | 20 | 192 | 9.7 | 16.1 | 0.03 | 0.71 | 0.64 | 63 | 1009.3 |
| 20260504021941 | 20 | 175 | 9.7 | 16.1 | 0.03 | 0.71 | 0.64 | 63 | 1009.3 |
| 20260504021841 | 20 | 169 | 8.0 | 16.1 | 0.03 | 0.71 | 0.64 | 63 | 1009.3 |
| 20260504021741 | 20 | 185 | 6.4 | 16.1 | 0.03 | 0.71 | 0.64 | 63 | 1009.3 |
| 20260504021641 | 21 | 168 | 8.0 | 16.1 | 0.03 | 0.71 | 0.64 | 63 | 1009.3 |
| 20260504021541 | 20 | 176 | 9.7 | 16.1 | 0.03 | 0.71 | 0.64 | 62 | 1009.2 |
| 20260504021442 | 21 | 178 | 9.7 | 16.1 | 0.03 | 0.71 | 0.64 | 62 | 1009.3 |
| 20260504021341 | 21 | 168 | 11.3 | 16.1 | 0.03 | 0.71 | 0.64 | 62 | 1009.1 |
| 20260504021242 | 21 | 185 | 11.3 | 16.1 | 0.03 | 0.71 | 0.64 | 63 | 1009.2 |
| 20260504021141 | 21 | 186 | 9.7 | 16.1 | 0.03 | 0.74 | 0.64 | 63 | 1009.2 |
| 20260504021042 | 21 | 154 | 9.7 | 16.1 | 0.03 | 0.74 | 0.64 | 63 | 1009.2 |
| 20260504020941 | 21 | 192 | 9.7 | 16.1 | 0.03 | 0.74 | 0.64 | 63 | 1009.2 |
| 20260504020841 | 21 | 173 | 9.7 | 16.1 | 0.03 | 0.74 | 0.64 | 63 | 1009.2 |
| 20260504020741 | 21 | 189 | 9.7 | 16.1 | 0.03 | 0.74 | 0.64 | 63 | 1009.2 |
| 20260504020641 | 21 | 188 | 6.4 | 14.5 | 0.03 | 0.74 | 0.64 | 63 | 1009.1 |
| 20260504020540 | 21 | 178 | 8.0 | 14.5 | 0.03 | 0.74 | 0.64 | 63 | 1009.1 |
| 20260504020438 | 21 | 169 | 9.7 | 14.5 | 0.00 | 0.71 | 0.61 | 63 | 1009.2 |
| 20260504020337 | 21 | 176 | 8.0 | 14.5 | 0.00 | 0.71 | 0.61 | 64 | 1009.1 |
| 20260504020235 | 21 | 209 | 6.4 | 14.5 | 0.00 | 0.71 | 0.61 | 64 | 1009.2 |
| 20260504020134 | 21 | 190 | 6.4 | 14.5 | 0.00 | 0.71 | 0.61 | 64 | 1009.1 |
| 20260504020034 | 21 | 185 | 6.4 | 14.5 | 0.00 | 0.71 | 0.61 | 64 | 1009.2 |
| 20260504015931 | 21 | 206 | 6.4 | 14.5 | 0.00 | 0.71 | 0.61 | 64 | 1009.1 |
| 20260504015832 | 21 | 175 | 4.8 | 14.5 | 0.00 | 0.71 | 0.61 | 64 | 1009.1 |
| 20260504015733 | 21 | 175 | 6.4 | 14.5 | 0.00 | 0.71 | 0.61 | 64 | 1009.1 |
| 20260504015631 | 21 | 178 | 8.0 | 14.5 | 0.00 | 0.71 | 0.61 | 64 | 1009.1 |
| 20260504015531 | 21 | 171 | 8.0 | 14.5 | 0.03 | 0.71 | 0.61 | 64 | 1009.0 |
| 20260504015430 | 21 | 158 | 9.7 | 14.5 | 0.03 | 0.71 | 0.61 | 64 | 1009.0 |
| 20260504015332 | 21 | 172 | 8.0 | 14.5 | 0.03 | 0.71 | 0.61 | 64 | 1009.1 |
| 20260504015231 | 21 | 172 | 6.4 | 14.5 | 0.03 | 0.71 | 0.61 | 64 | 1008.9 |
| 20260504015131 | 21 | 189 | 4.8 | 14.5 | 0.03 | 0.71 | 0.61 | 64 | 1009.0 |
| 20260504015032 | 21 | 175 | 6.4 | 16.1 | 0.03 | 0.71 | 0.61 | 64 | 1008.9 |
| 20260504014931 | 21 | 172 | 6.4 | 16.1 | 0.03 | 0.71 | 0.61 | 63 | 1008.9 |
| 20260504014831 | 21 | 188 | 4.8 | 17.7 | 0.03 | 0.71 | 0.61 | 63 | 1008.9 |
| 20260504014732 | 21 | 186 | 6.4 | 17.7 | 0.03 | 0.71 | 0.61 | 63 | 1008.9 |
| 20260504014631 | 21 | 176 | 8.0 | 17.7 | 0.03 | 0.71 | 0.61 | 63 | 1008.9 |
| 20260504014532 | 21 | 173 | 9.7 | 17.7 | 0.03 | 0.71 | 0.61 | 63 | 1009.0 |
| 20260504014431 | 21 | 176 | 8.0 | 17.7 | 0.03 | 0.71 | 0.61 | 62 | 1009.0 |
| 20260504014331 | 21 | 182 | 8.0 | 17.7 | 0.03 | 0.71 | 0.61 | 62 | 1009.0 |
| 20260504014230 | 21 | 176 | 9.7 | 17.7 | 0.03 | 0.71 | 0.61 | 62 | 1009.0 |
| 20260504014131 | 21 | 190 | 11.3 | 17.7 | 0.03 | 0.71 | 0.61 | 62 | 1009.0 |
| 20260504014032 | 21 | 197 | 11.3 | 17.7 | 0.03 | 0.71 | 0.61 | 62 | 1008.9 |
| 20260504013931 | 21 | 185 | 11.3 | 17.7 | 0.03 | 0.71 | 0.61 | 62 | 1009.0 |
| 20260504013831 | 21 | 185 | 9.7 | 16.1 | 0.03 | 0.71 | 0.61 | 62 | 1009.0 |
| 20260504013731 | 21 | 178 | 9.7 | 14.5 | 0.03 | 0.71 | 0.61 | 62 | 1008.9 |
| 20260504013632 | 21 | 197 | 9.7 | 14.5 | 0.03 | 0.71 | 0.61 | 61 | 1008.9 |
| 20260504013531 | 21 | 196 | 9.7 | 14.5 | 0.03 | 0.71 | 0.61 | 61 | 1008.9 |
| 20260504013432 | 21 | 209 | 6.4 | 11.3 | 0.03 | 0.71 | 0.61 | 61 | 1008.9 |
| 20260504013333 | 21 | 195 | 6.4 | 11.3 | 0.03 | 0.71 | 0.61 | 61 | 1009.0 |
| 20260504013230 | 21 | 190 | 6.4 | 11.3 | 0.03 | 0.74 | 0.61 | 61 | 1008.9 |
| 20260504013131 | 21 | 197 | 8.0 | 11.3 | 0.03 | 0.74 | 0.61 | 61 | 1008.9 |
| 20260504013031 | 21 | 196 | 6.4 | 9.7 | 0.03 | 0.74 | 0.61 | 61 | 1008.9 |
| 20260504012932 | 21 | 183 | 8.0 | 11.3 | 0.03 | 0.74 | 0.61 | 60 | 1008.8 |
| 20260504012831 | 22 | 209 | 8.0 | 11.3 | 0.03 | 0.74 | 0.61 | 60 | 1008.9 |
| 20260504012731 | 22 | 200 | 8.0 | 11.3 | 0.03 | 0.74 | 0.61 | 60 | 1008.9 |
| 20260504012633 | 22 | 182 | 8.0 | 11.3 | 0.03 | 0.74 | 0.61 | 59 | 1008.9 |
| 20260504012532 | 22 | 195 | 6.4 | 11.3 | 0.03 | 0.74 | 0.61 | 59 | 1008.9 |
| 20260504012431 | 22 | 190 | 8.0 | 16.1 | 0.03 | 0.74 | 0.61 | 59 | 1008.9 |
| 20260504012332 | 22 | 192 | 8.0 | 16.1 | 0.03 | 0.74 | 0.61 | 58 | 1008.8 |
| 20260504012231 | 22 | 192 | 6.4 | 16.1 | 0.03 | 0.74 | 0.61 | 58 | 1008.8 |
| 20260504012132 | 22 | 209 | 8.0 | 16.1 | 0.03 | 0.74 | 0.61 | 58 | 1008.8 |
| 20260504012031 | 22 | 196 | 9.7 | 16.1 | 0.03 | 0.74 | 0.61 | 58 | 1008.9 |
| 20260504011932 | 22 | 179 | 8.0 | 16.1 | 0.03 | 0.74 | 0.61 | 57 | 1008.8 |
| 20260504011832 | 22 | 186 | 8.0 | 16.1 | 0.03 | 0.74 | 0.61 | 57 | 1008.8 |
| 20260504011731 | 22 | 210 | 8.0 | 16.1 | 0.03 | 0.74 | 0.61 | 56 | 1008.7 |
| 20260504011632 | 22 | 193 | 9.7 | 16.1 | 0.03 | 0.74 | 0.61 | 56 | 1008.8 |
| 20260504011531 | 22 | 197 | 9.7 | 16.1 | 0.03 | 0.74 | 0.61 | 55 | 1008.8 |
| 20260504011431 | 22 | 206 | 9.7 | 16.1 | 0.03 | 0.74 | 0.61 | 55 | 1008.8 |
| 20260504011331 | 22 | 199 | 8.0 | 16.1 | 0.03 | 0.74 | 0.61 | 54 | 1008.7 |
| 20260504011232 | 22 | 207 | 8.0 | 14.5 | 0.03 | 0.74 | 0.61 | 54 | 1008.7 |
| 20260504011131 | 22 | 197 | 8.0 | 14.5 | 0.03 | 0.74 | 0.61 | 53 | 1008.7 |
| 20260504011031 | 22 | 196 | 6.4 | 14.5 | 0.03 | 0.74 | 0.61 | 53 | 1008.7 |
| 20260504010931 | 22 | 188 | 6.4 | 14.5 | 0.03 | 0.74 | 0.61 | 52 | 1008.7 |
| 20260504010831 | 23 | 0 | 8.0 | 14.5 | 0.03 | 0.74 | 0.61 | 52 | 1008.7 |
| 20260504010731 | 23 | 0 | 8.0 | 14.5 | 0.03 | 0.74 | 0.61 | 51 | 1008.7 |
| 20260504010631 | 23 | 213 | 6.4 | 9.7 | 0.03 | 0.74 | 0.61 | 51 | 1008.6 |
| 20260504010532 | 23 | 186 | 4.8 | 8.0 | 0.03 | 0.74 | 0.61 | 51 | 1008.6 |
| 20260504010430 | 23 | 193 | 3.2 | 8.0 | 0.03 | 0.74 | 0.61 | 51 | 1008.6 |
| 20260504010328 | 23 | 193 | 3.2 | 8.0 | 0.03 | 0.74 | 0.61 | 51 | 1008.6 |
| 20260504010227 | 23 | 193 | 3.2 | 8.0 | 0.03 | 0.74 | 0.61 | 50 | 1008.6 |
| 20260504010125 | 23 | 193 | 3.2 | 8.0 | 0.03 | 0.74 | 0.61 | 50 | 1008.5 |
| 20260504010025 | 23 | 196 | 3.2 | 8.0 | 0.03 | 0.74 | 0.61 | 50 | 1008.6 |
| 20260504005922 | 23 | 0 | 3.2 | 4.8 | 0.03 | 0.74 | 0.61 | 50 | 1008.6 |
| 20260504005821 | 23 | 199 | 1.6 | 4.8 | 0.03 | 0.74 | 0.61 | 50 | 1008.6 |
| 20260504005719 | 23 | 197 | 1.6 | 4.8 | 0.03 | 0.74 | 0.61 | 50 | 1008.6 |
| 20260504005618 | 23 | 196 | 1.6 | 4.8 | 0.03 | 0.74 | 0.61 | 50 | 1008.5 |
| 20260504005516 | 23 | 197 | 1.6 | 4.8 | 0.00 | 0.74 | 0.58 | 50 | 1008.6 |
| 20260504005415 | 23 | 196 | 0.0 | 4.8 | 0.00 | 0.74 | 0.58 | 51 | 1008.7 |
| 20260504005313 | 23 | 219 | 0.0 | 0.0 | 0.00 | 0.74 | 0.58 | 51 | 1008.6 |
| 20260504005212 | 23 | 219 | 0.0 | 0.0 | 0.00 | 0.74 | 0.58 | 51 | 1008.7 |
| 20260504005111 | 23 | 219 | 0.0 | 0.0 | 0.00 | 0.74 | 0.58 | 51 | 1008.7 |
| 20260504005009 | 23 | 220 | 0.0 | 0.0 | 0.00 | 0.74 | 0.58 | 51 | 1008.8 |
| 20260504004907 | 23 | 219 | 0.0 | 0.0 | 0.00 | 0.74 | 0.58 | 50 | 1008.7 |
| 20260504004807 | 23 | 219 | 0.0 | 0.0 | 0.00 | 0.74 | 0.58 | 50 | 1008.8 |
| 20260504004704 | 23 | 219 | 0.0 | 0.0 | 0.00 | 0.74 | 0.58 | 50 | 1008.7 |
| 20260504004604 | 23 | 219 | 0.0 | 0.0 | 0.03 | 0.74 | 0.58 | 50 | 1008.8 |
| 20260504004503 | 23 | 223 | 0.0 | 0.0 | 0.03 | 0.74 | 0.58 | 50 | 1008.7 |
| 20260504004403 | 23 | 219 | 0.0 | 0.0 | 0.03 | 0.74 | 0.58 | 50 | 1008.7 |
| 20260504004303 | 23 | 216 | 0.0 | 0.0 | 0.03 | 0.74 | 0.58 | 49 | 1008.7 |
| 20260504004202 | 23 | 216 | 0.0 | 0.0 | 0.03 | 0.74 | 0.58 | 49 | 1008.7 |
| 20260504004103 | 23 | 216 | 0.0 | 0.0 | 0.03 | 0.74 | 0.58 | 49 | 1008.6 |
| 20260504004002 | 23 | 0 | 0.0 | 1.6 | 0.03 | 0.74 | 0.58 | 49 | 1008.6 |
| 20260504003903 | 23 | 216 | 0.0 | 3.2 | 0.03 | 0.74 | 0.58 | 49 | 1008.6 |
| 20260504003802 | 23 | 216 | 0.0 | 3.2 | 0.03 | 0.74 | 0.58 | 49 | 1008.6 |
| 20260504003703 | 23 | 216 | 0.0 | 3.2 | 0.03 | 0.74 | 0.58 | 49 | 1008.7 |
| 20260504003604 | 24 | 216 | 0.0 | 3.2 | 0.03 | 0.74 | 0.58 | 49 | 1008.7 |
| 20260504003503 | 24 | 217 | 0.0 | 4.8 | 0.03 | 0.74 | 0.58 | 49 | 1008.7 |
| 20260504003402 | 24 | 217 | 0.0 | 4.8 | 0.03 | 0.74 | 0.58 | 48 | 1008.7 |
| 20260504003303 | 24 | 217 | 0.0 | 4.8 | 0.03 | 0.74 | 0.58 | 48 | 1008.8 |
| 20260504003202 | 24 | 219 | 0.0 | 4.8 | 0.03 | 0.74 | 0.58 | 48 | 1008.8 |
| 20260504003104 | 24 | 220 | 1.6 | 4.8 | 0.03 | 0.74 | 0.58 | 48 | 1008.8 |
| 20260504003003 | 24 | 220 | 1.6 | 4.8 | 0.03 | 0.74 | 0.58 | 48 | 1008.9 |
| 20260504002903 | 24 | 226 | 1.6 | 4.8 | 0.03 | 0.74 | 0.58 | 48 | 1008.9 |
| 20260504002802 | 24 | 220 | 1.6 | 4.8 | 0.03 | 0.74 | 0.58 | 48 | 1008.9 |
| 20260504002702 | 24 | 216 | 3.2 | 4.8 | 0.03 | 0.74 | 0.58 | 47 | 1008.9 |
| 20260504002603 | 24 | 214 | 3.2 | 4.8 | 0.03 | 0.74 | 0.58 | 47 | 1008.9 |
| 20260504002504 | 24 | 213 | 3.2 | 4.8 | 0.03 | 0.74 | 0.58 | 47 | 1009.0 |
| 20260504002402 | 24 | 213 | 3.2 | 4.8 | 0.03 | 0.74 | 0.58 | 47 | 1008.9 |
| 20260504002303 | 24 | 214 | 1.6 | 4.8 | 0.03 | 0.74 | 0.58 | 47 | 1008.8 |
| 20260504002203 | 24 | 213 | 1.6 | 4.8 | 0.03 | 0.74 | 0.58 | 47 | 1008.8 |
| 20260504002103 | 24 | 213 | 1.6 | 4.8 | 0.03 | 0.74 | 0.58 | 46 | 1008.8 |
| 20260504002003 | 24 | 213 | 1.6 | 6.4 | 0.03 | 0.74 | 0.58 | 46 | 1008.8 |
| 20260504001904 | 24 | 213 | 1.6 | 6.4 | 0.03 | 0.74 | 0.58 | 46 | 1008.8 |
| 20260504001803 | 24 | 214 | 1.6 | 9.7 | 0.03 | 0.74 | 0.58 | 46 | 1008.8 |
| 20260504001702 | 24 | 216 | 3.2 | 9.7 | 0.03 | 0.76 | 0.58 | 46 | 1008.8 |
| 20260504001603 | 24 | 214 | 3.2 | 9.7 | 0.03 | 0.76 | 0.58 | 45 | 1008.8 |
| 20260504001504 | 25 | 217 | 3.2 | 11.3 | 0.03 | 0.76 | 0.58 | 45 | 1008.9 |
| 20260504001402 | 25 | 214 | 3.2 | 11.3 | 0.03 | 0.76 | 0.58 | 45 | 1008.8 |
| 20260504001302 | 25 | 176 | 3.2 | 14.5 | 0.03 | 0.76 | 0.58 | 45 | 1008.9 |
| 20260504001203 | 25 | 175 | 3.2 | 14.5 | 0.03 | 0.76 | 0.58 | 45 | 1008.9 |
| 20260504001102 | 25 | 175 | 4.8 | 14.5 | 0.03 | 0.76 | 0.58 | 45 | 1008.8 |
| 20260504001003 | 25 | 180 | 4.8 | 14.5 | 0.03 | 0.76 | 0.58 | 44 | 1008.9 |
| 20260504000904 | 25 | 209 | 6.4 | 14.5 | 0.03 | 0.76 | 0.58 | 44 | 1008.9 |
| 20260504000803 | 25 | 199 | 6.4 | 14.5 | 0.03 | 0.76 | 0.58 | 44 | 1008.9 |
| 20260504000702 | 25 | 200 | 6.4 | 14.5 | 0.03 | 0.76 | 0.58 | 43 | 1008.9 |
| 20260504000601 | 25 | 0 | 6.4 | 14.5 | 0.03 | 0.76 | 0.58 | 43 | 1008.9 |
| 20260504000504 | 25 | 0 | 6.4 | 14.5 | 0.03 | 0.76 | 0.58 | 43 | 1008.9 |
| 20260504000402 | 25 | 0 | 6.4 | 14.5 | 0.03 | 0.76 | 0.58 | 43 | 1008.8 |
| 20260504000302 | 25 | 0 | 6.4 | 11.3 | 0.03 | 0.76 | 0.58 | 43 | 1008.8 |
| 20260504000204 | 25 | 0 | 6.4 | 11.3 | 0.03 | 0.76 | 0.58 | 43 | 1008.8 |
| 20260504000002 | 25 | 0 | 3.2 | 11.3 | 0.03 | 0.76 | 0.58 | 43 | 1008.8 |
| 20260503235901 | 25 | 0 | 4.8 | 14.5 | 0.03 | 0.76 | 0.58 | 43 | 1008.8 |
| 20260503235803 | 25 | 0 | 4.8 | 14.5 | 0.05 | 0.76 | 0.58 | 42 | 1008.8 |
| 20260503235702 | 25 | 0 | 6.4 | 14.5 | 0.05 | 0.76 | 0.58 | 42 | 1008.7 |
| 20260503235600 | 25 | 0 | 6.4 | 14.5 | 0.05 | 0.76 | 0.58 | 42 | 1008.8 |
| 20260503235459 | 25 | 0 | 8.0 | 14.5 | 0.05 | 0.76 | 0.58 | 42 | 1008.9 |
| 20260503235357 | 25 | 0 | 6.4 | 14.5 | 0.05 | 0.76 | 0.58 | 42 | 1008.9 |
| 20260503235255 | 25 | 0 | 4.8 | 14.5 | 0.05 | 0.76 | 0.58 | 42 | 1008.9 |
| 20260503235152 | 25 | 0 | 6.4 | 14.5 | 0.05 | 0.76 | 0.58 | 42 | 1009.0 |
| 20260503235052 | 25 | 0 | 8.0 | 14.5 | 0.05 | 0.79 | 0.58 | 41 | 1008.9 |
| 20260503234951 | 25 | 0 | 8.0 | 14.5 | 0.05 | 0.79 | 0.58 | 42 | 1009.1 |
| 20260503234850 | 25 | 0 | 6.4 | 11.3 | 0.05 | 0.79 | 0.58 | 43 | 1009.0 |
| 20260503234748 | 25 | 0 | 4.8 | 11.3 | 0.05 | 0.79 | 0.58 | 42 | 1009.0 |
| 20260503234643 | 25 | 0 | 4.8 | 11.3 | 0.05 | 0.76 | 0.56 | 42 | 1009.0 |
| 20260503234541 | 25 | 0 | 8.0 | 11.3 | 0.03 | 0.76 | 0.56 | 41 | 1008.9 |
| 20260503234440 | 25 | 180 | 6.4 | 11.3 | 0.03 | 0.76 | 0.56 | 41 | 1008.9 |
| 20260503234339 | 25 | 0 | 6.4 | 9.7 | 0.03 | 0.76 | 0.56 | 42 | 1008.9 |
| 20260503234238 | 25 | 0 | 6.4 | 9.7 | 0.03 | 0.76 | 0.56 | 43 | 1008.9 |
| 20260503234138 | 25 | 0 | 6.4 | 9.7 | 0.03 | 0.76 | 0.56 | 43 | 1008.9 |
| 20260503234038 | 25 | 0 | 4.8 | 9.7 | 0.03 | 0.76 | 0.56 | 44 | 1008.9 |
| 20260503233938 | 25 | 0 | 4.8 | 9.7 | 0.03 | 0.76 | 0.56 | 44 | 1008.9 |
| 20260503233837 | 25 | 0 | 4.8 | 9.7 | 0.03 | 0.76 | 0.56 | 44 | 1009.0 |
| 20260503233739 | 25 | 0 | 4.8 | 11.3 | 0.03 | 0.76 | 0.56 | 44 | 1009.0 |
| 20260503233637 | 25 | 0 | 4.8 | 11.3 | 0.03 | 0.76 | 0.56 | 44 | 1009.1 |
| 20260503233537 | 25 | 207 | 4.8 | 11.3 | 0.03 | 0.76 | 0.56 | 44 | 1009.1 |
| 20260503233439 | 25 | 228 | 4.8 | 11.3 | 0.03 | 0.76 | 0.56 | 43 | 1009.1 |
| 20260503233338 | 25 | 196 | 4.8 | 11.3 | 0.03 | 0.76 | 0.56 | 42 | 1008.9 |
| 20260503233238 | 25 | 168 | 4.8 | 11.3 | 0.03 | 0.76 | 0.56 | 42 | 1009.0 |
| 20260503233138 | 25 | 0 | 6.4 | 11.3 | 0.03 | 0.76 | 0.56 | 43 | 1009.0 |
| 20260503233037 | 25 | 0 | 6.4 | 11.3 | 0.03 | 0.76 | 0.56 | 43 | 1009.0 |
| 20260503232937 | 25 | 0 | 8.0 | 11.3 | 0.03 | 0.76 | 0.56 | 43 | 1008.9 |
| 20260503232838 | 25 | 0 | 8.0 | 11.3 | 0.03 | 0.76 | 0.56 | 42 | 1009.0 |
| 20260503232738 | 25 | 0 | 6.4 | 11.3 | 0.03 | 0.76 | 0.56 | 43 | 1008.9 |
| 20260503232637 | 26 | 0 | 6.4 | 9.7 | 0.03 | 0.76 | 0.56 | 44 | 1009.0 |
| 20260503232537 | 26 | 0 | 6.4 | 9.7 | 0.03 | 0.79 | 0.56 | 43 | 1009.0 |
| 20260503232439 | 25 | 0 | 6.4 | 14.5 | 0.03 | 0.79 | 0.56 | 43 | 1009.0 |
| 20260503232337 | 25 | 0 | 8.0 | 14.5 | 0.03 | 0.79 | 0.56 | 43 | 1009.0 |
| 20260503232237 | 26 | 0 | 8.0 | 14.5 | 0.03 | 0.79 | 0.56 | 42 | 1009.0 |
| 20260503232138 | 26 | 0 | 6.4 | 14.5 | 0.03 | 0.79 | 0.56 | 42 | 1009.0 |
| 20260503232038 | 26 | 0 | 6.4 | 14.5 | 0.03 | 0.79 | 0.56 | 43 | 1008.9 |
| 20260503231937 | 26 | 0 | 6.4 | 14.5 | 0.03 | 0.79 | 0.56 | 42 | 1009.0 |
| 20260503231838 | 26 | 0 | 6.4 | 14.5 | 0.03 | 0.79 | 0.56 | 42 | 1009.0 |
| 20260503231738 | 26 | 0 | 6.4 | 16.1 | 0.03 | 0.79 | 0.56 | 41 | 1009.1 |
| 20260503231637 | 26 | 0 | 8.0 | 16.1 | 0.03 | 0.79 | 0.56 | 42 | 1009.1 |
| 20260503231537 | 26 | 0 | 8.0 | 16.1 | 0.03 | 0.79 | 0.56 | 42 | 1009.1 |
| 20260503231437 | 26 | 0 | 8.0 | 16.1 | 0.03 | 0.79 | 0.56 | 41 | 1009.1 |
| 20260503231338 | 26 | 0 | 6.4 | 16.1 | 0.03 | 0.79 | 0.56 | 41 | 1009.1 |
| 20260503231237 | 26 | 0 | 8.0 | 16.1 | 0.03 | 0.79 | 0.56 | 41 | 1009.2 |
| 20260503231137 | 26 | 0 | 6.4 | 16.1 | 0.03 | 0.79 | 0.56 | 41 | 1009.2 |
| 20260503231039 | 26 | 0 | 6.4 | 16.1 | 0.03 | 0.79 | 0.56 | 42 | 1009.2 |
| 20260503230937 | 26 | 0 | 8.0 | 16.1 | 0.03 | 0.79 | 0.56 | 42 | 1009.2 |
| 20260503230837 | 26 | 0 | 8.0 | 16.1 | 0.03 | 0.79 | 0.56 | 44 | 1009.2 |
| 20260503230737 | 26 | 0 | 6.4 | 16.1 | 0.03 | 0.79 | 0.56 | 43 | 1009.1 |
| 20260503230638 | 26 | 0 | 6.4 | 16.1 | 0.05 | 0.79 | 0.56 | 43 | 1009.2 |
| 20260503230537 | 26 | 0 | 6.4 | 17.7 | 0.05 | 0.79 | 0.56 | 43 | 1009.1 |
| 20260503230437 | 26 | 0 | 6.4 | 19.3 | 0.05 | 0.79 | 0.56 | 43 | 1009.1 |
| 20260503230337 | 26 | 0 | 4.8 | 19.3 | 0.05 | 0.81 | 0.56 | 44 | 1009.2 |
| 20260503230236 | 26 | 0 | 6.4 | 19.3 | 0.05 | 0.81 | 0.56 | 42 | 1009.1 |
| 20260503230137 | 26 | 0 | 8.0 | 19.3 | 0.05 | 0.81 | 0.56 | 42 | 1009.2 |
| 20260503230038 | 26 | 0 | 9.7 | 19.3 | 0.05 | 0.81 | 0.56 | 41 | 1009.2 |
| 20260503225938 | 26 | 0 | 9.7 | 19.3 | 0.05 | 0.81 | 0.56 | 41 | 1009.1 |
| 20260503225837 | 26 | 0 | 6.4 | 19.3 | 0.05 | 0.79 | 0.53 | 43 | 1009.1 |
| 20260503225736 | 26 | 0 | 8.0 | 19.3 | 0.03 | 0.79 | 0.53 | 42 | 1009.2 |
| 20260503225638 | 26 | 0 | 12.9 | 19.3 | 0.03 | 0.79 | 0.53 | 40 | 1009.2 |
| 20260503225537 | 26 | 151 | 12.9 | 19.3 | 0.03 | 0.79 | 0.53 | 40 | 1009.1 |
| 20260503225437 | 26 | 186 | 12.9 | 19.3 | 0.03 | 0.79 | 0.53 | 40 | 1009.2 |
| 20260503225337 | 26 | 166 | 11.3 | 19.3 | 0.03 | 0.79 | 0.53 | 41 | 1009.1 |
| 20260503225238 | 26 | 185 | 9.7 | 17.7 | 0.03 | 0.79 | 0.53 | 42 | 1009.3 |
| 20260503225137 | 26 | 0 | 6.4 | 11.3 | 0.03 | 0.79 | 0.53 | 43 | 1009.1 |
| 20260503225036 | 26 | 161 | 6.4 | 14.5 | 0.03 | 0.79 | 0.53 | 43 | 1009.1 |
| 20260503224938 | 26 | 0 | 6.4 | 14.5 | 0.03 | 0.79 | 0.53 | 44 | 1009.2 |
| 20260503224836 | 26 | 0 | 3.2 | 14.5 | 0.03 | 0.79 | 0.53 | 43 | 1009.1 |
| 20260503224737 | 26 | 213 | 4.8 | 14.5 | 0.03 | 0.79 | 0.53 | 42 | 1009.1 |
| 20260503224636 | 26 | 206 | 6.4 | 14.5 | 0.03 | 0.79 | 0.53 | 42 | 1009.2 |
| 20260503224538 | 26 | 254 | 6.4 | 14.5 | 0.03 | 0.79 | 0.53 | 42 | 1009.2 |
| 20260503224437 | 26 | 216 | 6.4 | 14.5 | 0.03 | 0.79 | 0.53 | 43 | 1009.2 |
| 20260503224336 | 26 | 210 | 6.4 | 14.5 | 0.03 | 0.81 | 0.53 | 42 | 1009.3 |
| 20260503224237 | 26 | 230 | 8.0 | 14.5 | 0.03 | 0.81 | 0.53 | 42 | 1009.3 |
| 20260503224136 | 26 | 207 | 9.7 | 14.5 | 0.03 | 0.81 | 0.53 | 42 | 1009.4 |
| 20260503224036 | 26 | 0 | 6.4 | 14.5 | 0.03 | 0.81 | 0.53 | 42 | 1009.4 |
| 20260503223937 | 26 | 0 | 4.8 | 9.7 | 0.03 | 0.81 | 0.53 | 43 | 1009.4 |
| 20260503223837 | 26 | 234 | 6.4 | 9.7 | 0.03 | 0.81 | 0.53 | 44 | 1009.4 |
| 20260503223738 | 26 | 230 | 4.8 | 11.3 | 0.03 | 0.81 | 0.53 | 43 | 1009.5 |
| 20260503223636 | 26 | 228 | 4.8 | 11.3 | 0.03 | 0.81 | 0.53 | 42 | 1009.4 |
| 20260503223537 | 26 | 234 | 6.4 | 11.3 | 0.03 | 0.81 | 0.53 | 42 | 1009.5 |
| 20260503223436 | 26 | 261 | 6.4 | 17.7 | 0.03 | 0.81 | 0.53 | 44 | 1009.4 |
| 20260503223336 | 26 | 233 | 4.8 | 17.7 | 0.03 | 0.81 | 0.53 | 43 | 1009.4 |
| 20260503223238 | 26 | 250 | 6.4 | 17.7 | 0.03 | 0.81 | 0.53 | 43 | 1009.5 |
| 20260503223137 | 26 | 197 | 6.4 | 17.7 | 0.03 | 0.81 | 0.53 | 42 | 1009.5 |
| 20260503223035 | 26 | 0 | 6.4 | 17.7 | 0.03 | 0.81 | 0.53 | 42 | 1009.4 |
| 20260503222936 | 26 | 0 | 6.4 | 17.7 | 0.03 | 0.81 | 0.53 | 41 | 1009.3 |
| 20260503222837 | 26 | 0 | 8.0 | 17.7 | 0.03 | 0.81 | 0.53 | 41 | 1009.4 |
| 20260503222736 | 26 | 0 | 8.0 | 17.7 | 0.03 | 0.84 | 0.53 | 41 | 1009.3 |
| 20260503222636 | 26 | 0 | 8.0 | 17.7 | 0.03 | 0.84 | 0.53 | 41 | 1009.4 |
| 20260503222536 | 26 | 0 | 8.0 | 17.7 | 0.03 | 0.84 | 0.53 | 43 | 1009.3 |
| 20260503222437 | 26 | 0 | 4.8 | 11.3 | 0.03 | 0.84 | 0.53 | 43 | 1009.4 |
| 20260503222336 | 26 | 0 | 4.8 | 9.7 | 0.03 | 0.84 | 0.53 | 42 | 1009.4 |
| 20260503222235 | 26 | 209 | 6.4 | 9.7 | 0.05 | 0.84 | 0.53 | 43 | 1009.4 |
| 20260503222137 | 26 | 0 | 6.4 | 9.7 | 0.05 | 0.84 | 0.53 | 42 | 1009.5 |
| 20260503222036 | 26 | 0 | 6.4 | 9.7 | 0.05 | 0.84 | 0.53 | 42 | 1009.6 |
| 20260503221935 | 26 | 173 | 6.4 | 9.7 | 0.05 | 0.84 | 0.53 | 44 | 1009.5 |
| 20260503221837 | 26 | 0 | 6.4 | 9.7 | 0.05 | 0.84 | 0.53 | 45 | 1009.6 |
| 20260503221736 | 26 | 0 | 4.8 | 9.7 | 0.05 | 0.84 | 0.53 | 44 | 1009.6 |
| 20260503221635 | 26 | 0 | 4.8 | 16.1 | 0.05 | 0.84 | 0.53 | 43 | 1009.6 |
| 20260503221536 | 26 | 228 | 6.4 | 16.1 | 0.05 | 0.84 | 0.53 | 43 | 1009.6 |
| 20260503221435 | 26 | 219 | 6.4 | 16.1 | 0.05 | 0.84 | 0.53 | 43 | 1009.7 |
| 20260503221336 | 26 | 0 | 6.4 | 16.1 | 0.05 | 0.84 | 0.53 | 43 | 1009.7 |
| 20260503221235 | 26 | 233 | 6.4 | 16.1 | 0.05 | 0.84 | 0.53 | 43 | 1009.6 |
| 20260503221135 | 26 | 199 | 4.8 | 16.1 | 0.05 | 0.84 | 0.53 | 42 | 1009.6 |
| 20260503221036 | 26 | 0 | 4.8 | 16.1 | 0.05 | 0.84 | 0.53 | 41 | 1009.6 |
| 20260503220935 | 26 | 0 | 6.4 | 16.1 | 0.05 | 0.84 | 0.53 | 40 | 1009.6 |
| 20260503220836 | 26 | 0 | 9.7 | 16.1 | 0.05 | 0.86 | 0.53 | 41 | 1009.6 |
| 20260503220736 | 26 | 0 | 9.7 | 16.1 | 0.05 | 0.86 | 0.53 | 42 | 1009.7 |
| 20260503220636 | 26 | 0 | 8.0 | 16.1 | 0.03 | 0.84 | 0.51 | 42 | 1009.8 |
| 20260503220536 | 26 | 0 | 6.4 | 16.1 | 0.03 | 0.84 | 0.51 | 43 | 1009.8 |
| 20260503220437 | 26 | 0 | 6.4 | 16.1 | 0.03 | 0.84 | 0.51 | 42 | 1009.8 |
| 20260503220335 | 26 | 0 | 6.4 | 16.1 | 0.03 | 0.84 | 0.51 | 42 | 1009.8 |
| 20260503220235 | 26 | 0 | 6.4 | 16.1 | 0.03 | 0.84 | 0.51 | 41 | 1009.8 |
| 20260503220135 | 26 | 0 | 8.0 | 16.1 | 0.03 | 0.84 | 0.51 | 41 | 1009.8 |
| 20260503220037 | 26 | 179 | 9.7 | 16.1 | 0.03 | 0.84 | 0.51 | 41 | 1009.9 |
| 20260503215935 | 26 | 164 | 9.7 | 16.1 | 0.03 | 0.84 | 0.51 | 42 | 1010.0 |
| 20260503215836 | 26 | 144 | 9.7 | 16.1 | 0.03 | 0.84 | 0.51 | 40 | 1010.0 |
| 20260503215736 | 26 | 155 | 8.0 | 16.1 | 0.03 | 0.84 | 0.51 | 41 | 1010.0 |
| 20260503215635 | 26 | 0 | 6.4 | 16.1 | 0.03 | 0.84 | 0.51 | 42 | 1009.9 |
| 20260503215536 | 26 | 0 | 6.4 | 16.1 | 0.03 | 0.84 | 0.51 | 40 | 1009.9 |
| 20260503215435 | 26 | 0 | 8.0 | 16.1 | 0.03 | 0.84 | 0.51 | 40 | 1009.9 |
| 20260503215335 | 26 | 0 | 9.7 | 16.1 | 0.03 | 0.84 | 0.51 | 40 | 1009.9 |
| 20260503215235 | 26 | 0 | 8.0 | 16.1 | 0.03 | 0.86 | 0.51 | 42 | 1009.8 |
| 20260503215135 | 26 | 0 | 6.4 | 16.1 | 0.03 | 0.86 | 0.51 | 41 | 1009.8 |
| 20260503215037 | 26 | 192 | 8.0 | 16.1 | 0.03 | 0.86 | 0.51 | 43 | 1009.8 |
| 20260503214935 | 26 | 203 | 8.0 | 16.1 | 0.03 | 0.86 | 0.51 | 41 | 1009.8 |
| 20260503214835 | 26 | 0 | 9.7 | 19.3 | 0.03 | 0.86 | 0.51 | 41 | 1009.8 |
| 20260503214736 | 26 | 0 | 8.0 | 19.3 | 0.03 | 0.86 | 0.51 | 41 | 1009.8 |
| 20260503214637 | 26 | 0 | 4.8 | 22.5 | 0.03 | 0.86 | 0.51 | 44 | 1009.7 |
| 20260503214535 | 26 | 0 | 4.8 | 22.5 | 0.03 | 0.86 | 0.51 | 43 | 1009.8 |
| 20260503214435 | 26 | 0 | 6.4 | 22.5 | 0.03 | 0.86 | 0.51 | 42 | 1009.8 |
| 20260503214336 | 26 | 0 | 9.7 | 22.5 | 0.03 | 0.86 | 0.51 | 41 | 1009.8 |
| 20260503214234 | 26 | 0 | 11.3 | 22.5 | 0.03 | 0.86 | 0.51 | 40 | 1009.9 |
| 20260503214135 | 26 | 0 | 9.7 | 22.5 | 0.03 | 0.86 | 0.51 | 39 | 1009.8 |
| 20260503214037 | 26 | 0 | 12.9 | 22.5 | 0.03 | 0.86 | 0.51 | 40 | 1009.9 |
| 20260503213935 | 26 | 0 | 14.5 | 22.5 | 0.03 | 0.86 | 0.51 | 40 | 1009.8 |
| 20260503213835 | 26 | 145 | 16.1 | 22.5 | 0.05 | 0.86 | 0.51 | 41 | 1009.9 |
| 20260503213735 | 26 | 166 | 14.5 | 22.5 | 0.05 | 0.86 | 0.51 | 42 | 1009.9 |
| 20260503213636 | 27 | 0 | 8.0 | 19.3 | 0.05 | 0.86 | 0.51 | 41 | 1009.9 |
| 20260503213535 | 27 | 0 | 6.4 | 11.3 | 0.05 | 0.86 | 0.51 | 42 | 1009.9 |
| 20260503213434 | 27 | 0 | 6.4 | 11.3 | 0.05 | 0.89 | 0.51 | 41 | 1009.9 |
| 20260503213336 | 26 | 0 | 6.4 | 11.3 | 0.05 | 0.89 | 0.51 | 41 | 1009.8 |
| 20260503213234 | 26 | 0 | 6.4 | 16.1 | 0.05 | 0.89 | 0.51 | 40 | 1009.9 |
| 20260503213134 | 26 | 0 | 6.4 | 16.1 | 0.05 | 0.89 | 0.51 | 40 | 1009.9 |
| 20260503213035 | 26 | 0 | 4.8 | 16.1 | 0.05 | 0.89 | 0.51 | 40 | 1009.9 |
| 20260503212936 | 26 | 0 | 6.4 | 16.1 | 0.05 | 0.89 | 0.51 | 40 | 1009.8 |
| 20260503212835 | 26 | 0 | 8.0 | 16.1 | 0.05 | 0.89 | 0.51 | 40 | 1010.0 |
| 20260503212734 | 26 | 0 | 6.4 | 16.1 | 0.05 | 0.89 | 0.51 | 40 | 1010.0 |
| 20260503212635 | 26 | 0 | 4.8 | 16.1 | 0.05 | 0.89 | 0.51 | 41 | 1010.1 |
| 20260503212535 | 26 | 0 | 3.2 | 16.1 | 0.05 | 0.89 | 0.51 | 41 | 1010.1 |
| 20260503212434 | 26 | 0 | 6.4 | 16.1 | 0.05 | 0.89 | 0.51 | 41 | 1010.2 |
| 20260503212334 | 26 | 0 | 9.7 | 16.1 | 0.05 | 0.89 | 0.51 | 40 | 1010.2 |
| 20260503212236 | 26 | 0 | 6.4 | 16.1 | 0.03 | 0.86 | 0.48 | 39 | 1010.4 |
| 20260503212134 | 26 | 0 | 4.8 | 16.1 | 0.03 | 0.86 | 0.48 | 39 | 1010.3 |
| 20260503212034 | 26 | 0 | 6.4 | 16.1 | 0.03 | 0.86 | 0.48 | 39 | 1010.4 |
| 20260503211935 | 26 | 0 | 8.0 | 16.1 | 0.03 | 0.86 | 0.48 | 39 | 1010.4 |
| 20260503211835 | 26 | 0 | 9.7 | 16.1 | 0.03 | 0.89 | 0.48 | 39 | 1010.5 |
| 20260503211734 | 26 | 0 | 4.8 | 16.1 | 0.03 | 0.89 | 0.48 | 42 | 1010.5 |
| 20260503211634 | 26 | 0 | 0.0 | 14.5 | 0.03 | 0.89 | 0.48 | 43 | 1010.5 |
| 20260503211534 | 26 | 0 | 0.0 | 16.1 | 0.03 | 0.89 | 0.48 | 42 | 1010.5 |
| 20260503211434 | 26 | 0 | 1.6 | 17.7 | 0.03 | 0.89 | 0.48 | 41 | 1010.5 |
| 20260503211334 | 26 | 0 | 1.6 | 17.7 | 0.03 | 0.89 | 0.48 | 40 | 1010.5 |
| 20260503211236 | 26 | 0 | 3.2 | 17.7 | 0.03 | 0.89 | 0.48 | 41 | 1010.4 |
| 20260503211135 | 26 | 0 | 3.2 | 17.7 | 0.03 | 0.89 | 0.48 | 42 | 1010.4 |
| 20260503211034 | 26 | 0 | 3.2 | 17.7 | 0.03 | 0.89 | 0.48 | 42 | 1010.4 |
| 20260503210934 | 26 | 0 | 3.2 | 19.3 | 0.03 | 0.89 | 0.48 | 41 | 1010.5 |
| 20260503210835 | 26 | 0 | 6.4 | 19.3 | 0.03 | 0.89 | 0.48 | 40 | 1010.5 |
| 20260503210734 | 26 | 0 | 11.3 | 19.3 | 0.03 | 0.89 | 0.48 | 40 | 1010.5 |
| 20260503210634 | 26 | 0 | 12.9 | 19.3 | 0.03 | 0.89 | 0.48 | 40 | 1010.5 |
| 20260503210535 | 26 | 0 | 11.3 | 19.3 | 0.03 | 0.89 | 0.48 | 41 | 1010.6 |
| 20260503210434 | 26 | 0 | 8.0 | 19.3 | 0.03 | 0.89 | 0.48 | 41 | 1010.6 |
| 20260503210334 | 26 | 0 | 8.0 | 19.3 | 0.03 | 0.89 | 0.48 | 40 | 1010.6 |
| 20260503210234 | 26 | 0 | 11.3 | 19.3 | 0.03 | 0.89 | 0.48 | 39 | 1010.5 |
| 20260503210135 | 26 | 0 | 12.9 | 19.3 | 0.03 | 0.89 | 0.48 | 40 | 1010.6 |
| 20260503210034 | 26 | 0 | 9.7 | 19.3 | 0.03 | 0.91 | 0.48 | 41 | 1010.6 |
| 20260503205934 | 26 | 0 | 9.7 | 17.7 | 0.03 | 0.91 | 0.48 | 41 | 1010.6 |
| 20260503205836 | 26 | 182 | 9.7 | 17.7 | 0.03 | 0.91 | 0.48 | 40 | 1010.6 |
| 20260503205734 | 27 | 176 | 8.0 | 16.1 | 0.05 | 0.91 | 0.48 | 41 | 1010.7 |
| 20260503205634 | 27 | 0 | 9.7 | 16.1 | 0.05 | 0.91 | 0.48 | 40 | 1010.6 |
| 20260503205535 | 27 | 0 | 6.4 | 16.1 | 0.05 | 0.91 | 0.48 | 42 | 1010.6 |
| 20260503205435 | 27 | 0 | 4.8 | 20.9 | 0.05 | 0.91 | 0.48 | 42 | 1010.5 |
| 20260503205334 | 27 | 0 | 4.8 | 20.9 | 0.05 | 0.91 | 0.48 | 42 | 1010.5 |
| 20260503205234 | 27 | 0 | 4.8 | 20.9 | 0.05 | 0.91 | 0.48 | 41 | 1010.5 |
| 20260503205135 | 27 | 0 | 8.0 | 20.9 | 0.05 | 0.91 | 0.48 | 39 | 1010.5 |
| 20260503205034 | 27 | 0 | 9.7 | 20.9 | 0.05 | 0.91 | 0.48 | 39 | 1010.5 |
| 20260503204934 | 27 | 0 | 6.4 | 20.9 | 0.05 | 0.91 | 0.48 | 40 | 1010.5 |
| 20260503204835 | 27 | 0 | 3.2 | 20.9 | 0.05 | 0.91 | 0.48 | 41 | 1010.5 |
| 20260503204734 | 27 | 0 | 4.8 | 20.9 | 0.05 | 0.91 | 0.48 | 42 | 1010.7 |
| 20260503204634 | 27 | 0 | 9.7 | 20.9 | 0.05 | 0.91 | 0.48 | 43 | 1010.7 |
| 20260503204533 | 27 | 0 | 9.7 | 20.9 | 0.05 | 0.91 | 0.48 | 44 | 1010.6 |
| 20260503204435 | 27 | 0 | 4.8 | 14.5 | 0.05 | 0.91 | 0.48 | 41 | 1010.6 |
| 20260503204333 | 27 | 0 | 1.6 | 9.7 | 0.05 | 0.91 | 0.48 | 41 | 1010.7 |
| 20260503204233 | 27 | 0 | 0.0 | 11.3 | 0.05 | 0.94 | 0.48 | 41 | 1010.8 |
| 20260503204134 | 27 | 0 | 1.6 | 11.3 | 0.05 | 0.94 | 0.48 | 41 | 1010.8 |
| 20260503204032 | 27 | 0 | 4.8 | 11.3 | 0.05 | 0.94 | 0.48 | 41 | 1010.8 |
| 20260503203933 | 27 | 0 | 4.8 | 11.3 | 0.05 | 0.91 | 0.46 | 42 | 1010.8 |
| 20260503203833 | 27 | 0 | 3.2 | 14.5 | 0.03 | 0.91 | 0.46 | 43 | 1010.9 |
| 20260503203734 | 27 | 0 | 3.2 | 14.5 | 0.03 | 0.91 | 0.46 | 42 | 1011.0 |
| 20260503203633 | 27 | 0 | 4.8 | 14.5 | 0.03 | 0.91 | 0.46 | 40 | 1010.9 |
| 20260503203534 | 27 | 0 | 6.4 | 22.5 | 0.03 | 0.91 | 0.46 | 41 | 1010.9 |
| 20260503203433 | 27 | 0 | 8.0 | 22.5 | 0.03 | 0.91 | 0.46 | 42 | 1011.0 |
| 20260503203333 | 27 | 0 | 8.0 | 22.5 | 0.03 | 0.91 | 0.46 | 42 | 1011.0 |
| 20260503203233 | 27 | 0 | 6.4 | 22.5 | 0.03 | 0.91 | 0.46 | 41 | 1011.0 |
| 20260503203133 | 27 | 0 | 8.0 | 22.5 | 0.03 | 0.91 | 0.46 | 43 | 1011.0 |
| 20260503203034 | 27 | 180 | 8.0 | 22.5 | 0.03 | 0.91 | 0.46 | 43 | 1011.1 |
| 20260503202934 | 27 | 183 | 4.8 | 22.5 | 0.03 | 0.91 | 0.46 | 42 | 1011.0 |
| 20260503202833 | 27 | 0 | 3.2 | 22.5 | 0.03 | 0.91 | 0.46 | 41 | 1011.0 |
| 20260503202735 | 27 | 0 | 8.0 | 22.5 | 0.03 | 0.91 | 0.46 | 40 | 1011.1 |
| 20260503202633 | 27 | 149 | 14.5 | 22.5 | 0.03 | 0.91 | 0.46 | 40 | 1011.2 |
| 20260503202533 | 27 | 189 | 9.7 | 20.9 | 0.03 | 0.91 | 0.46 | 42 | 1011.2 |
| 20260503202433 | 27 | 185 | 4.8 | 14.5 | 0.03 | 0.94 | 0.46 | 43 | 1011.1 |
| 20260503202334 | 27 | 199 | 3.2 | 11.3 | 0.03 | 0.94 | 0.46 | 43 | 1011.1 |
| 20260503202233 | 27 | 192 | 4.8 | 11.3 | 0.03 | 0.94 | 0.46 | 42 | 1011.3 |
| 20260503202133 | 27 | 192 | 4.8 | 14.5 | 0.03 | 0.94 | 0.46 | 41 | 1011.2 |
| 20260503202034 | 27 | 214 | 4.8 | 14.5 | 0.03 | 0.94 | 0.46 | 42 | 1011.2 |
| 20260503201933 | 26 | 226 | 6.4 | 14.5 | 0.03 | 0.94 | 0.46 | 42 | 1011.3 |
| 20260503201833 | 26 | 169 | 6.4 | 14.5 | 0.03 | 0.94 | 0.46 | 44 | 1011.2 |
| 20260503201732 | 26 | 182 | 4.8 | 17.7 | 0.03 | 0.94 | 0.46 | 43 | 1011.3 |
| 20260503201633 | 26 | 237 | 4.8 | 17.7 | 0.03 | 0.94 | 0.46 | 43 | 1011.2 |
| 20260503201533 | 26 | 234 | 6.4 | 17.7 | 0.03 | 0.94 | 0.46 | 43 | 1011.1 |
| 20260503201433 | 26 | 186 | 8.0 | 17.7 | 0.05 | 0.94 | 0.46 | 41 | 1011.3 |
| 20260503201334 | 27 | 155 | 8.0 | 17.7 | 0.05 | 0.94 | 0.46 | 41 | 1011.2 |
| 20260503201233 | 27 | 158 | 4.8 | 17.7 | 0.05 | 0.94 | 0.46 | 41 | 1011.3 |
| 20260503201133 | 27 | 161 | 3.2 | 17.7 | 0.05 | 0.94 | 0.46 | 41 | 1011.3 |
| 20260503201033 | 27 | 158 | 6.4 | 17.7 | 0.05 | 0.94 | 0.46 | 40 | 1011.3 |
| 20260503200934 | 27 | 158 | 9.7 | 17.7 | 0.05 | 0.94 | 0.46 | 40 | 1011.4 |
| 20260503200833 | 27 | 183 | 9.7 | 17.7 | 0.05 | 0.94 | 0.46 | 41 | 1011.5 |
| 20260503200732 | 27 | 168 | 8.0 | 11.3 | 0.05 | 0.94 | 0.46 | 42 | 1011.5 |
| 20260503200634 | 27 | 213 | 6.4 | 11.3 | 0.05 | 0.97 | 0.46 | 43 | 1011.4 |
| 20260503200532 | 27 | 189 | 8.0 | 11.3 | 0.05 | 0.97 | 0.46 | 42 | 1011.5 |
| 20260503200433 | 27 | 185 | 6.4 | 11.3 | 0.05 | 0.97 | 0.46 | 43 | 1011.5 |
| 20260503200334 | 27 | 0 | 4.8 | 11.3 | 0.05 | 0.97 | 0.46 | 43 | 1011.5 |
| 20260503200234 | 27 | 0 | 1.6 | 9.7 | 0.05 | 0.97 | 0.46 | 43 | 1011.5 |
| 20260503200133 | 27 | 0 | 0.0 | 9.7 | 0.05 | 0.97 | 0.46 | 40 | 1011.6 |
| 20260503200032 | 27 | 0 | 1.6 | 11.3 | 0.05 | 0.97 | 0.46 | 40 | 1011.5 |
| 20260503195934 | 27 | 135 | 3.2 | 17.7 | 0.05 | 0.97 | 0.46 | 41 | 1011.6 |
| 20260503195833 | 27 | 0 | 4.8 | 17.7 | 0.05 | 0.94 | 0.43 | 40 | 1011.6 |
| 20260503195733 | 27 | 0 | 6.4 | 17.7 | 0.03 | 0.94 | 0.43 | 40 | 1011.6 |
| 20260503195632 | 27 | 0 | 6.4 | 17.7 | 0.03 | 0.94 | 0.43 | 41 | 1011.6 |
| 20260503195534 | 27 | 0 | 4.8 | 17.7 | 0.03 | 0.94 | 0.43 | 42 | 1011.7 |
| 20260503195432 | 27 | 0 | 4.8 | 17.7 | 0.03 | 0.94 | 0.43 | 41 | 1011.6 |
| 20260503195333 | 27 | 0 | 4.8 | 17.7 | 0.03 | 0.94 | 0.43 | 41 | 1011.6 |
| 20260503195234 | 27 | 0 | 4.8 | 17.7 | 0.03 | 0.94 | 0.43 | 40 | 1011.6 |
| 20260503195132 | 27 | 0 | 9.7 | 17.7 | 0.03 | 0.94 | 0.43 | 40 | 1011.7 |
| 20260503195032 | 27 | 0 | 8.0 | 17.7 | 0.03 | 0.94 | 0.43 | 42 | 1011.7 |
| 20260503194931 | 27 | 0 | 3.2 | 8.0 | 0.03 | 0.94 | 0.43 | 42 | 1011.8 |
| 20260503194833 | 27 | 0 | 1.6 | 6.4 | 0.03 | 0.94 | 0.43 | 41 | 1011.8 |
| 20260503194734 | 27 | 0 | 1.6 | 8.0 | 0.03 | 0.94 | 0.43 | 41 | 1011.8 |
| 20260503194633 | 27 | 0 | 1.6 | 8.0 | 0.03 | 0.94 | 0.43 | 42 | 1011.8 |
| 20260503194533 | 26 | 0 | 1.6 | 8.0 | 0.03 | 0.97 | 0.43 | 43 | 1011.8 |
| 20260503194432 | 26 | 0 | 3.2 | 8.0 | 0.03 | 0.97 | 0.43 | 42 | 1011.9 |
| 20260503194332 | 26 | 0 | 4.8 | 9.7 | 0.03 | 0.97 | 0.43 | 43 | 1011.9 |
| 20260503194232 | 26 | 0 | 3.2 | 9.7 | 0.03 | 0.97 | 0.43 | 43 | 1011.9 |
| 20260503194132 | 26 | 0 | 3.2 | 9.7 | 0.03 | 0.97 | 0.43 | 43 | 1011.9 |
| 20260503194034 | 26 | 276 | 3.2 | 9.7 | 0.03 | 0.97 | 0.43 | 44 | 1011.9 |
| 20260503193932 | 26 | 298 | 3.2 | 9.7 | 0.03 | 0.97 | 0.43 | 42 | 1011.9 |
| 20260503193832 | 26 | 214 | 3.2 | 9.7 | 0.03 | 0.97 | 0.43 | 42 | 1011.9 |
| 20260503193733 | 26 | 155 | 4.8 | 9.7 | 0.03 | 0.97 | 0.43 | 41 | 1011.9 |
| 20260503193632 | 26 | 158 | 6.4 | 11.3 | 0.05 | 0.97 | 0.43 | 43 | 1011.9 |
| 20260503193533 | 26 | 166 | 6.4 | 20.9 | 0.05 | 0.97 | 0.43 | 42 | 1011.9 |
| 20260503193432 | 26 | 158 | 6.4 | 25.7 | 0.05 | 0.97 | 0.43 | 43 | 1011.9 |
| 20260503193332 | 26 | 0 | 6.4 | 25.7 | 0.05 | 0.97 | 0.43 | 43 | 1011.9 |
| 20260503193232 | 26 | 0 | 6.4 | 25.7 | 0.05 | 0.97 | 0.43 | 43 | 1012.0 |
| 20260503193133 | 26 | 180 | 4.8 | 25.7 | 0.05 | 0.97 | 0.43 | 43 | 1011.9 |
| 20260503193032 | 26 | 175 | 4.8 | 25.7 | 0.05 | 0.97 | 0.43 | 43 | 1012.0 |
| 20260503192932 | 26 | 214 | 3.2 | 25.7 | 0.05 | 0.97 | 0.43 | 43 | 1012.1 |
| 20260503192833 | 26 | 214 | 8.0 | 25.7 | 0.05 | 0.97 | 0.43 | 42 | 1012.1 |
| 20260503192718 | 26 | 0 | 11.3 | 25.7 | 0.05 | 0.97 | 0.43 | 42 | 1012.2 |
| 20260503192616 | 26 | 152 | 14.5 | 25.7 | 0.05 | 0.97 | 0.43 | 41 | 1012.2 |